Wetterdaten: Montag, 10.05.2021
Datum Zeit Temp. Aussen Temp. o. S. Temp +5cm Feuchte Auss Luftdruck Regen Sonnenschein Regendauer Solar Windben Empfang
10.05.2021 00:00 20,6 C 19,4 C 16,7 C 62 % 1001,4 hPa 0,0 l/m 0 min 0 min 0 W/m 6,4 km/h (2 Bft) 100,00 %
10.05.2021 00:02 20,6 C 19,4 C 16,7 C 62 % 1001,4 hPa 0,0 l/m 0 min 0 min 0 W/m 12,9 km/h (3 Bft) 100,00 %
10.05.2021 00:04 20,6 C 19,4 C 16,7 C 62 % 1001,5 hPa 0,0 l/m 0 min 0 min 0 W/m 6,4 km/h (2 Bft) 100,00 %
10.05.2021 00:08 20,5 C 19,4 C 16,7 C 62 % 1001,3 hPa 0,0 l/m 0 min 0 min 0 W/m 6,4 km/h (2 Bft) 98,94 %
10.05.2021 00:10 20,5 C 19,4 C 16,7 C 62 % 1001,4 hPa 0,0 l/m 0 min 0 min 0 W/m 6,4 km/h (2 Bft) 100,00 %
10.05.2021 00:12 20,5 C 19,4 C 16,7 C 62 % 1001,3 hPa 0,0 l/m 0 min 0 min 0 W/m 3,2 km/h (1 Bft) 100,00 %
10.05.2021 00:14 20,5 C 19,4 C 16,1 C 62 % 1001,3 hPa 0,0 l/m 0 min 0 min 0 W/m 6,4 km/h (2 Bft) 97,87 %
10.05.2021 00:16 20,5 C 19,4 C 16,1 C 62 % 1001,3 hPa 0,0 l/m 0 min 0 min 0 W/m 3,2 km/h (1 Bft) 100,00 %
10.05.2021 00:18 20,5 C 19,4 C 16,1 C 63 % 1001,3 hPa 0,0 l/m 0 min 0 min 0 W/m 3,2 km/h (1 Bft) 97,87 %
10.05.2021 00:20 20,4 C 19,4 C 16,1 C 63 % 1001,3 hPa 0,0 l/m 0 min 0 min 0 W/m 6,4 km/h (2 Bft) 100,00 %
10.05.2021 00:22 20,4 C 19,4 C 16,1 C 63 % 1001,3 hPa 0,0 l/m 0 min 0 min 0 W/m 6,4 km/h (2 Bft) 100,00 %
10.05.2021 00:24 20,4 C 19,4 C 16,1 C 63 % 1001,3 hPa 0,0 l/m 0 min 0 min 0 W/m 6,4 km/h (2 Bft) 97,83 %
10.05.2021 00:26 20,4 C 19,4 C 16,1 C 63 % 1001,3 hPa 0,0 l/m 0 min 0 min 0 W/m 3,2 km/h (1 Bft) 100,00 %
10.05.2021 00:28 20,4 C 19,4 C 16,1 C 63 % 1001,3 hPa 0,0 l/m 0 min 0 min 0 W/m 12,9 km/h (3 Bft) 100,00 %
10.05.2021 00:30 20,3 C 19,4 C 16,1 C 63 % 1001,3 hPa 0,0 l/m 0 min 0 min 0 W/m 6,4 km/h (2 Bft) 100,00 %
10.05.2021 00:32 20,3 C 19,4 C 16,1 C 63 % 1001,4 hPa 0,0 l/m 0 min 0 min 0 W/m 12,9 km/h (3 Bft) 100,00 %
10.05.2021 00:34 20,3 C 19,4 C 16,1 C 63 % 1001,4 hPa 0,0 l/m 0 min 0 min 0 W/m 6,4 km/h (2 Bft) 100,00 %
10.05.2021 00:36 20,3 C 19,4 C 16,1 C 63 % 1001,3 hPa 0,0 l/m 0 min 0 min 0 W/m 16,1 km/h (3 Bft) 97,87 %
10.05.2021 00:38 20,3 C 19,4 C 16,7 C 63 % 1001,3 hPa 0,0 l/m 0 min 0 min 0 W/m 16,1 km/h (3 Bft) 97,87 %
10.05.2021 00:40 20,3 C 19,4 C 16,1 C 63 % 1001,2 hPa 0,0 l/m 0 min 0 min 0 W/m 6,4 km/h (2 Bft) 95,74 %
10.05.2021 00:42 20,3 C 19,4 C 16,1 C 63 % 1001,2 hPa 0,0 l/m 0 min 0 min 0 W/m 9,7 km/h (2 Bft) 97,87 %
10.05.2021 00:44 20,3 C 19,4 C 16,1 C 63 % 1001,3 hPa 0,0 l/m 0 min 0 min 0 W/m 6,4 km/h (2 Bft) 97,87 %
10.05.2021 00:46 20,3 C 19,4 C 16,1 C 63 % 1001,3 hPa 0,0 l/m 0 min 0 min 0 W/m 6,4 km/h (2 Bft) 97,83 %
10.05.2021 00:48 20,3 C 19,4 C 16,1 C 63 % 1001,3 hPa 0,0 l/m 0 min 0 min 0 W/m 12,9 km/h (3 Bft) 97,87 %
10.05.2021 00:50 20,3 C 19,4 C 16,1 C 63 % 1001,2 hPa 0,0 l/m 0 min 0 min 0 W/m 12,9 km/h (3 Bft) 97,87 %
10.05.2021 00:52 20,2 C 19,4 C 16,1 C 64 % 1001,3 hPa 0,0 l/m 0 min 0 min 0 W/m 6,4 km/h (2 Bft) 97,87 %
10.05.2021 00:54 20,2 C 19,4 C 16,1 C 64 % 1001,3 hPa 0,0 l/m 0 min 0 min 0 W/m 6,4 km/h (2 Bft) 97,87 %
10.05.2021 00:56 20,2 C 19,4 C 16,1 C 64 % 1001,3 hPa 0,0 l/m 0 min 0 min 0 W/m 12,9 km/h (3 Bft) 97,87 %
10.05.2021 00:58 20,2 C 19,4 C 16,1 C 64 % 1001,3 hPa 0,0 l/m 0 min 0 min 0 W/m 12,9 km/h (3 Bft) 95,65 %
10.05.2021 01:00 20,1 C 19,4 C 16,1 C 64 % 1001,4 hPa 0,0 l/m 0 min 0 min 0 W/m 6,4 km/h (2 Bft) 97,87 %
10.05.2021 01:02 20,1 C 19,4 C 16,1 C 64 % 1001,4 hPa 0,0 l/m 0 min 0 min 0 W/m 12,9 km/h (3 Bft) 97,87 %
10.05.2021 01:04 20,1 C 18,9 C 16,1 C 64 % 1001,3 hPa 0,0 l/m 0 min 0 min 0 W/m 6,4 km/h (2 Bft) 97,87 %
10.05.2021 01:06 20,1 C 18,9 C 16,1 C 64 % 1001,3 hPa 0,0 l/m 0 min 0 min 0 W/m 12,9 km/h (3 Bft) 97,87 %
10.05.2021 01:08 20,1 C 18,9 C 16,1 C 64 % 1001,3 hPa 0,0 l/m 0 min 0 min 0 W/m 9,7 km/h (2 Bft) 97,87 %
10.05.2021 01:10 20,1 C 18,9 C 16,1 C 64 % 1001,4 hPa 0,0 l/m 0 min 0 min 0 W/m 6,4 km/h (2 Bft) 97,83 %
10.05.2021 01:12 20,1 C 18,9 C 16,1 C 64 % 1001,4 hPa 0,0 l/m 0 min 0 min 0 W/m 9,7 km/h (2 Bft) 97,87 %
10.05.2021 01:14 20,1 C 18,9 C 16,1 C 64 % 1001,4 hPa 0,0 l/m 0 min 0 min 0 W/m 12,9 km/h (3 Bft) 95,74 %
10.05.2021 01:16 20,1 C 18,9 C 16,1 C 65 % 1001,4 hPa 0,0 l/m 0 min 0 min 0 W/m 6,4 km/h (2 Bft) 97,87 %
10.05.2021 01:18 20,0 C 18,9 C 16,1 C 65 % 1001,4 hPa 0,0 l/m 0 min 0 min 0 W/m 9,7 km/h (2 Bft) 93,62 %
10.05.2021 01:20 20,0 C 18,9 C 16,1 C 65 % 1001,4 hPa 0,0 l/m 0 min 0 min 0 W/m 6,4 km/h (2 Bft) 93,62 %
10.05.2021 01:22 20,0 C 18,9 C 16,1 C 65 % 1001,5 hPa 0,0 l/m 0 min 0 min 0 W/m 12,9 km/h (3 Bft) 95,65 %
10.05.2021 01:24 20,0 C 18,9 C 16,1 C 65 % 1001,3 hPa 0,0 l/m 0 min 0 min 0 W/m 6,4 km/h (2 Bft) 97,87 %
10.05.2021 01:26 20,0 C 18,9 C 16,1 C 65 % 1001,3 hPa 0,0 l/m 0 min 0 min 0 W/m 12,9 km/h (3 Bft) 95,74 %
10.05.2021 01:28 20,0 C 18,9 C 16,1 C 65 % 1001,2 hPa 0,0 l/m 0 min 0 min 0 W/m 6,4 km/h (2 Bft) 95,74 %
10.05.2021 01:30 20,0 C 18,9 C 16,1 C 65 % 1001,1 hPa 0,0 l/m 0 min 0 min 0 W/m 6,4 km/h (2 Bft) 95,74 %
10.05.2021 01:32 20,0 C 18,9 C 16,1 C 65 % 1001,1 hPa 0,0 l/m 0 min 0 min 0 W/m 9,7 km/h (2 Bft) 93,62 %
10.05.2021 01:34 20,0 C 18,9 C 16,1 C 65 % 1001,1 hPa 0,0 l/m 0 min 0 min 0 W/m 12,9 km/h (3 Bft) 95,65 %
10.05.2021 01:36 20,0 C 18,9 C 16,1 C 65 % 1001,1 hPa 0,0 l/m 0 min 0 min 0 W/m 6,4 km/h (2 Bft) 95,74 %
10.05.2021 01:38 20,0 C 18,9 C 16,1 C 65 % 1001,1 hPa 0,0 l/m 0 min 0 min 0 W/m 6,4 km/h (2 Bft) 97,87 %
10.05.2021 01:40 20,0 C 19,4 C 16,1 C 65 % 1001,1 hPa 0,0 l/m 0 min 0 min 0 W/m 12,9 km/h (3 Bft) 95,74 %
10.05.2021 01:42 20,0 C 19,4 C 16,1 C 65 % 1001,1 hPa 0,0 l/m 0 min 0 min 0 W/m 16,1 km/h (3 Bft) 95,74 %
10.05.2021 01:44 20,0 C 19,4 C 16,1 C 64 % 1001,2 hPa 0,0 l/m 0 min 0 min 0 W/m 16,1 km/h (3 Bft) 95,65 %
10.05.2021 01:46 20,0 C 19,4 C 16,1 C 64 % 1001,1 hPa 0,0 l/m 0 min 0 min 0 W/m 12,9 km/h (3 Bft) 95,74 %
10.05.2021 01:48 20,0 C 19,4 C 16,1 C 64 % 1001,1 hPa 0,0 l/m 0 min 0 min 0 W/m 12,9 km/h (3 Bft) 95,74 %
10.05.2021 01:50 20,0 C 19,4 C 16,1 C 64 % 1001,2 hPa 0,0 l/m 0 min 0 min 0 W/m 6,4 km/h (2 Bft) 95,74 %
10.05.2021 01:52 20,1 C 19,4 C 16,1 C 64 % 1001,1 hPa 0,0 l/m 0 min 0 min 0 W/m 9,7 km/h (2 Bft) 93,62 %
10.05.2021 01:54 20,1 C 19,4 C 16,1 C 64 % 1001,1 hPa 0,0 l/m 0 min 0 min 0 W/m 16,1 km/h (3 Bft) 93,62 %
10.05.2021 01:56 20,1 C 19,4 C 16,1 C 64 % 1001,1 hPa 0,0 l/m 0 min 0 min 0 W/m 6,4 km/h (2 Bft) 95,65 %
10.05.2021 01:58 20,1 C 19,4 C 16,1 C 64 % 1001,1 hPa 0,0 l/m 0 min 2 min 0 W/m 6,4 km/h (2 Bft) 93,62 %
10.05.2021 02:00 20,1 C 19,4 C 16,1 C 64 % 1001,2 hPa 0,0 l/m 0 min 0 min 0 W/m 6,4 km/h (2 Bft) 95,74 %
10.05.2021 02:02 20,1 C 19,4 C 16,1 C 64 % 1001,2 hPa 0,0 l/m 0 min 0 min 0 W/m 6,4 km/h (2 Bft) 95,83 %
10.05.2021 02:04 20,1 C 19,4 C 16,1 C 64 % 1001,0 hPa 0,0 l/m 0 min 0 min 0 W/m 6,4 km/h (2 Bft) 95,74 %
10.05.2021 02:06 20,2 C 19,4 C 15,6 C 65 % 1001,1 hPa 0,0 l/m 0 min 2 min 0 W/m 12,9 km/h (3 Bft) 93,62 %
10.05.2021 02:08 20,2 C 19,4 C 15,6 C 65 % 1001,1 hPa 0,0 l/m 0 min 0 min 0 W/m 19,3 km/h (3 Bft) 97,83 %
10.05.2021 02:10 20,2 C 19,4 C 15,6 C 65 % 1001,0 hPa 0,0 l/m 0 min 0 min 0 W/m 9,7 km/h (2 Bft) 97,87 %
10.05.2021 02:12 20,2 C 19,4 C 16,1 C 65 % 1001,0 hPa 0,0 l/m 0 min 0 min 0 W/m 16,1 km/h (3 Bft) 97,87 %
10.05.2021 02:14 20,2 C 19,4 C 15,6 C 65 % 1000,9 hPa 0,0 l/m 0 min 2 min 0 W/m 16,1 km/h (3 Bft) 95,74 %
10.05.2021 02:16 20,2 C 19,4 C 15,6 C 66 % 1001,0 hPa 0,0 l/m 0 min 2 min 0 W/m 9,7 km/h (2 Bft) 95,74 %
10.05.2021 02:18 20,1 C 19,4 C 15,6 C 66 % 1000,9 hPa 0,0 l/m 0 min 2 min 0 W/m 16,1 km/h (3 Bft) 97,87 %
10.05.2021 02:20 20,1 C 19,4 C 15,0 C 66 % 1000,8 hPa 0,0 l/m 0 min 2 min 0 W/m 12,9 km/h (3 Bft) 97,83 %
10.05.2021 02:22 20,1 C 19,4 C 15,0 C 65 % 1000,8 hPa 0,0 l/m 0 min 0 min 0 W/m 9,7 km/h (2 Bft) 97,87 %
10.05.2021 02:24 20,1 C 19,4 C 15,6 C 66 % 1000,7 hPa 0,0 l/m 0 min 0 min 0 W/m 16,1 km/h (3 Bft) 97,87 %
10.05.2021 02:26 20,1 C 19,4 C 15,6 C 65 % 1000,8 hPa 0,0 l/m 0 min 0 min 0 W/m 16,1 km/h (3 Bft) 97,87 %
10.05.2021 02:28 20,2 C 19,4 C 16,1 C 64 % 1000,8 hPa 0,0 l/m 0 min 0 min 0 W/m 12,9 km/h (3 Bft) 100,00 %
10.05.2021 02:30 20,2 C 19,4 C 16,1 C 64 % 1000,7 hPa 0,0 l/m 0 min 0 min 0 W/m 12,9 km/h (3 Bft) 100,00 %
10.05.2021 02:32 20,3 C 19,4 C 16,1 C 63 % 1000,7 hPa 0,0 l/m 0 min 0 min 0 W/m 12,9 km/h (3 Bft) 100,00 %
10.05.2021 02:34 20,3 C 19,4 C 16,1 C 63 % 1000,8 hPa 0,0 l/m 0 min 0 min 0 W/m 19,3 km/h (3 Bft) 100,00 %
10.05.2021 02:36 20,3 C 19,4 C 16,1 C 63 % 1000,8 hPa 0,0 l/m 0 min 0 min 0 W/m 12,9 km/h (3 Bft) 100,00 %
10.05.2021 02:38 20,4 C 19,4 C 16,1 C 63 % 1000,8 hPa 0,0 l/m 0 min 0 min 0 W/m 12,9 km/h (3 Bft) 100,00 %
10.05.2021 02:40 20,4 C 19,4 C 16,1 C 63 % 1000,8 hPa 0,0 l/m 0 min 0 min 0 W/m 6,4 km/h (2 Bft) 100,00 %
10.05.2021 02:42 20,4 C 19,4 C 16,7 C 62 % 1000,7 hPa 0,0 l/m 0 min 0 min 0 W/m 16,1 km/h (3 Bft) 100,00 %
10.05.2021 02:44 20,4 C 19,4 C 16,7 C 62 % 1000,7 hPa 0,0 l/m 0 min 0 min 0 W/m 12,9 km/h (3 Bft) 100,00 %
10.05.2021 02:46 20,5 C 19,4 C 16,7 C 62 % 1000,7 hPa 0,0 l/m 0 min 0 min 0 W/m 9,7 km/h (2 Bft) 100,00 %
10.05.2021 02:48 20,5 C 20,0 C 16,7 C 62 % 1000,7 hPa 0,0 l/m 0 min 0 min 0 W/m 12,9 km/h (3 Bft) 95,74 %
10.05.2021 02:50 20,5 C 20,0 C 16,7 C 62 % 1000,6 hPa 0,0 l/m 0 min 0 min 0 W/m 16,1 km/h (3 Bft) 100,00 %
10.05.2021 02:52 20,5 C 20,0 C 16,7 C 61 % 1000,6 hPa 0,0 l/m 0 min 0 min 0 W/m 19,3 km/h (3 Bft) 97,87 %
10.05.2021 02:54 20,5 C 20,0 C 16,7 C 61 % 1000,7 hPa 0,0 l/m 0 min 0 min 0 W/m 22,5 km/h (4 Bft) 100,00 %
10.05.2021 02:56 20,5 C 20,0 C 16,7 C 61 % 1000,6 hPa 0,0 l/m 0 min 0 min 0 W/m 16,1 km/h (3 Bft) 100,00 %
10.05.2021 02:58 20,6 C 19,4 C 16,7 C 61 % 1000,6 hPa 0,0 l/m 0 min 0 min 0 W/m 16,1 km/h (3 Bft) 100,00 %
10.05.2021 03:00 20,6 C 19,4 C 16,7 C 62 % 1000,5 hPa 0,0 l/m 0 min 0 min 0 W/m 16,1 km/h (3 Bft) 100,00 %
10.05.2021 03:02 20,6 C 19,4 C 16,7 C 62 % 1000,5 hPa 0,0 l/m 0 min 0 min 0 W/m 12,9 km/h (3 Bft) 97,92 %
10.05.2021 03:04 20,5 C 19,4 C 16,7 C 63 % 1000,5 hPa 0,0 l/m 0 min 0 min 0 W/m 16,1 km/h (3 Bft) 100,00 %
10.05.2021 03:06 20,5 C 19,4 C 16,1 C 63 % 1000,5 hPa 0,0 l/m 0 min 0 min 0 W/m 12,9 km/h (3 Bft) 95,65 %
10.05.2021 03:08 20,4 C 19,4 C 16,1 C 63 % 1000,5 hPa 0,0 l/m 0 min 0 min 0 W/m 16,1 km/h (3 Bft) 100,00 %
10.05.2021 03:10 20,4 C 19,4 C 16,1 C 63 % 1000,5 hPa 0,0 l/m 0 min 0 min 0 W/m 12,9 km/h (3 Bft) 100,00 %
10.05.2021 03:12 20,4 C 19,4 C 16,1 C 63 % 1000,5 hPa 0,0 l/m 0 min 0 min 0 W/m 16,1 km/h (3 Bft) 100,00 %
10.05.2021 03:14 20,4 C 19,4 C 16,1 C 62 % 1000,4 hPa 0,0 l/m 0 min 0 min 0 W/m 22,5 km/h (4 Bft) 100,00 %
10.05.2021 03:16 20,3 C 19,4 C 16,1 C 62 % 1000,5 hPa 0,0 l/m 0 min 0 min 0 W/m 16,1 km/h (3 Bft) 100,00 %
10.05.2021 03:18 20,3 C 19,4 C 16,1 C 62 % 1000,5 hPa 0,0 l/m 0 min 0 min 0 W/m 19,3 km/h (3 Bft) 100,00 %
10.05.2021 03:20 20,3 C 19,4 C 16,1 C 62 % 1000,6 hPa 0,0 l/m 0 min 0 min 0 W/m 16,1 km/h (3 Bft) 100,00 %
10.05.2021 03:22 20,3 C 19,4 C 16,1 C 62 % 1000,5 hPa 0,0 l/m 0 min 0 min 0 W/m 16,1 km/h (3 Bft) 95,74 %
10.05.2021 03:24 20,3 C 19,4 C 16,1 C 62 % 1000,6 hPa 0,0 l/m 0 min 0 min 0 W/m 22,5 km/h (4 Bft) 97,87 %
10.05.2021 03:26 20,4 C 19,4 C 16,7 C 61 % 1000,5 hPa 0,0 l/m 0 min 0 min 0 W/m 16,1 km/h (3 Bft) 97,87 %
10.05.2021 03:28 20,4 C 19,4 C 16,7 C 61 % 1000,5 hPa 0,0 l/m 0 min 0 min 0 W/m 16,1 km/h (3 Bft) 97,87 %
10.05.2021 03:30 20,4 C 20,0 C 16,7 C 60 % 1000,5 hPa 0,0 l/m 0 min 0 min 0 W/m 22,5 km/h (4 Bft) 95,65 %
10.05.2021 03:32 20,5 C 20,0 C 16,7 C 59 % 1000,4 hPa 0,0 l/m 0 min 0 min 0 W/m 19,3 km/h (3 Bft) 95,74 %
10.05.2021 03:34 20,6 C 20,0 C 16,7 C 59 % 1000,5 hPa 0,0 l/m 0 min 0 min 0 W/m 22,5 km/h (4 Bft) 95,74 %
10.05.2021 03:36 20,7 C 20,0 C 16,7 C 58 % 1000,4 hPa 0,0 l/m 0 min 0 min 0 W/m 12,9 km/h (3 Bft) 97,87 %
10.05.2021 03:38 20,8 C 20,0 C 16,7 C 58 % 1000,5 hPa 0,0 l/m 0 min 0 min 0 W/m 25,7 km/h (4 Bft) 97,87 %
10.05.2021 03:40 20,9 C 20,6 C 17,3 C 58 % 1000,6 hPa 0,0 l/m 0 min 0 min 0 W/m 51,5 km/h (7 Bft) 97,87 %
10.05.2021 03:42 21,0 C 20,6 C 17,3 C 58 % 1000,6 hPa 0,0 l/m 0 min 0 min 0 W/m 22,5 km/h (4 Bft) 97,83 %
10.05.2021 03:44 21,0 C 20,6 C 17,3 C 57 % 1000,6 hPa 0,0 l/m 0 min 0 min 0 W/m 22,5 km/h (4 Bft) 97,87 %
10.05.2021 03:46 21,1 C 20,6 C 17,3 C 57 % 1000,5 hPa 0,0 l/m 0 min 0 min 0 W/m 25,7 km/h (4 Bft) 97,87 %
10.05.2021 03:48 21,2 C 20,6 C 17,3 C 57 % 1000,5 hPa 0,0 l/m 0 min 0 min 0 W/m 29,0 km/h (5 Bft) 97,87 %
10.05.2021 03:50 21,3 C 20,6 C 17,3 C 56 % 1000,5 hPa 0,0 l/m 0 min 0 min 0 W/m 32,2 km/h (5 Bft) 95,74 %
10.05.2021 03:52 21,3 C 20,6 C 17,3 C 56 % 1000,4 hPa 0,0 l/m 0 min 0 min 0 W/m 32,2 km/h (5 Bft) 97,87 %
10.05.2021 03:54 21,4 C 20,6 C 17,3 C 56 % 1000,4 hPa 0,0 l/m 0 min 0 min 0 W/m 38,6 km/h (5 Bft) 95,65 %
10.05.2021 03:56 21,5 C 21,1 C 17,8 C 55 % 1000,4 hPa 0,0 l/m 0 min 0 min 0 W/m 29,0 km/h (5 Bft) 95,74 %
10.05.2021 03:58 21,6 C 21,1 C 17,8 C 55 % 1000,4 hPa 0,0 l/m 0 min 0 min 0 W/m 32,2 km/h (5 Bft) 97,87 %
10.05.2021 04:00 21,8 C 21,1 C 17,8 C 54 % 1000,3 hPa 0,0 l/m 0 min 0 min 0 W/m 45,1 km/h (6 Bft) 97,87 %
10.05.2021 04:02 21,8 C 21,1 C 17,8 C 54 % 1000,3 hPa 0,0 l/m 0 min 0 min 0 W/m 32,2 km/h (5 Bft) 100,00 %
10.05.2021 04:04 21,9 C 21,1 C 17,8 C 54 % 1000,2 hPa 0,0 l/m 0 min 0 min 0 W/m 32,2 km/h (5 Bft) 93,62 %
10.05.2021 04:06 21,9 C 21,1 C 17,8 C 54 % 1000,2 hPa 0,0 l/m 0 min 0 min 0 W/m 32,2 km/h (5 Bft) 93,48 %
10.05.2021 04:08 21,9 C 21,1 C 17,8 C 54 % 1000,3 hPa 0,0 l/m 0 min 0 min 0 W/m 22,5 km/h (4 Bft) 100,00 %
10.05.2021 04:10 21,9 C 21,1 C 17,8 C 54 % 1000,2 hPa 0,0 l/m 0 min 0 min 0 W/m 25,7 km/h (4 Bft) 100,00 %
10.05.2021 04:12 21,9 C 21,1 C 17,8 C 54 % 1000,2 hPa 0,0 l/m 0 min 0 min 0 W/m 16,1 km/h (3 Bft) 95,74 %
10.05.2021 04:14 21,9 C 21,1 C 17,3 C 55 % 1000,1 hPa 0,0 l/m 0 min 0 min 0 W/m 22,5 km/h (4 Bft) 95,74 %
10.05.2021 04:16 21,9 C 20,6 C 17,3 C 56 % 1000,2 hPa 0,0 l/m 0 min 2 min 0 W/m 32,2 km/h (5 Bft) 97,87 %
10.05.2021 04:18 21,9 C 20,6 C 16,1 C 56 % 1000,2 hPa 0,0 l/m 0 min 0 min 0 W/m 22,5 km/h (4 Bft) 97,83 %
10.05.2021 04:20 21,8 C 20,6 C 15,6 C 56 % 1000,2 hPa 0,0 l/m 0 min 2 min 0 W/m 29,0 km/h (5 Bft) 97,87 %
10.05.2021 04:22 21,8 C 20,6 C 15,0 C 56 % 1000,1 hPa 0,0 l/m 0 min 0 min 0 W/m 22,5 km/h (4 Bft) 95,74 %
10.05.2021 04:24 21,8 C 20,6 C 15,6 C 56 % 1000,1 hPa 0,0 l/m 0 min 0 min 0 W/m 22,5 km/h (4 Bft) 97,87 %
10.05.2021 04:26 21,6 C 20,6 C 16,1 C 56 % 1000,1 hPa 0,0 l/m 0 min 0 min 0 W/m 32,2 km/h (5 Bft) 97,87 %
10.05.2021 04:28 21,6 C 20,6 C 16,7 C 56 % 1000,1 hPa 0,0 l/m 0 min 0 min 0 W/m 19,3 km/h (3 Bft) 97,87 %
10.05.2021 04:30 21,6 C 20,6 C 16,7 C 56 % 1000,0 hPa 0,0 l/m 0 min 0 min 0 W/m 22,5 km/h (4 Bft) 97,83 %
10.05.2021 04:32 21,6 C 20,6 C 16,7 C 56 % 1000,1 hPa 0,0 l/m 0 min 0 min 0 W/m 22,5 km/h (4 Bft) 95,74 %
10.05.2021 04:34 21,5 C 20,6 C 16,7 C 56 % 999,9 hPa 0,0 l/m 0 min 0 min 0 W/m 16,1 km/h (3 Bft) 97,87 %
10.05.2021 04:36 21,5 C 20,6 C 16,7 C 56 % 1000,0 hPa 0,0 l/m 0 min 0 min 0 W/m 19,3 km/h (3 Bft) 100,00 %
10.05.2021 04:38 21,5 C 20,0 C 16,7 C 56 % 1000,1 hPa 0,0 l/m 0 min 0 min 0 W/m 29,0 km/h (5 Bft) 97,87 %
10.05.2021 04:40 21,4 C 20,0 C 16,7 C 57 % 1000,1 hPa 0,0 l/m 0 min 0 min 0 W/m 12,9 km/h (3 Bft) 97,83 %
10.05.2021 04:42 21,4 C 20,0 C 16,7 C 57 % 1000,1 hPa 0,0 l/m 0 min 0 min 0 W/m 16,1 km/h (3 Bft) 95,74 %
10.05.2021 04:44 21,4 C 20,0 C 16,7 C 57 % 1000,1 hPa 0,0 l/m 0 min 0 min 0 W/m 29,0 km/h (5 Bft) 97,87 %
10.05.2021 04:46 21,3 C 20,0 C 16,7 C 57 % 1000,2 hPa 0,0 l/m 0 min 0 min 0 W/m 29,0 km/h (5 Bft) 95,74 %
10.05.2021 04:48 21,3 C 20,0 C 16,7 C 57 % 1000,1 hPa 0,0 l/m 0 min 0 min 0 W/m 25,7 km/h (4 Bft) 97,87 %
10.05.2021 04:50 21,2 C 20,0 C 16,7 C 58 % 1000,1 hPa 0,0 l/m 0 min 0 min 0 W/m 16,1 km/h (3 Bft) 97,87 %
10.05.2021 04:52 21,1 C 20,0 C 16,7 C 58 % 1000,0 hPa 0,0 l/m 0 min 0 min 0 W/m 16,1 km/h (3 Bft) 97,83 %
10.05.2021 04:54 21,1 C 20,0 C 16,7 C 58 % 1000,0 hPa 0,0 l/m 0 min 0 min 0 W/m 29,0 km/h (5 Bft) 97,87 %
10.05.2021 04:56 21,0 C 20,0 C 16,7 C 58 % 1000,0 hPa 0,0 l/m 0 min 0 min 0 W/m 16,1 km/h (3 Bft) 95,74 %
10.05.2021 04:58 21,0 C 20,0 C 16,7 C 58 % 1000,0 hPa 0,0 l/m 0 min 0 min 0 W/m 16,1 km/h (3 Bft) 95,74 %
10.05.2021 05:00 21,0 C 20,0 C 16,7 C 58 % 999,9 hPa 0,0 l/m 0 min 0 min 0 W/m 12,9 km/h (3 Bft) 95,74 %
10.05.2021 05:02 21,0 C 20,0 C 16,7 C 58 % 1000,0 hPa 0,0 l/m 0 min 0 min 0 W/m 19,3 km/h (3 Bft) 95,74 %
10.05.2021 05:04 20,9 C 19,4 C 16,7 C 59 % 999,9 hPa 0,0 l/m 0 min 0 min 0 W/m 16,1 km/h (3 Bft) 93,88 %
10.05.2021 05:06 20,9 C 19,4 C 16,7 C 59 % 999,9 hPa 0,0 l/m 0 min 0 min 0 W/m 22,5 km/h (4 Bft) 95,74 %
10.05.2021 05:08 20,9 C 19,4 C 16,7 C 59 % 1000,0 hPa 0,0 l/m 0 min 0 min 0 W/m 16,1 km/h (3 Bft) 97,87 %
10.05.2021 05:10 20,8 C 19,4 C 16,7 C 59 % 999,9 hPa 0,0 l/m 0 min 0 min 0 W/m 22,5 km/h (4 Bft) 97,87 %
10.05.2021 05:12 20,8 C 19,4 C 16,7 C 59 % 1000,0 hPa 0,0 l/m 0 min 0 min 0 W/m 12,9 km/h (3 Bft) 95,74 %
10.05.2021 05:14 20,8 C 19,4 C 16,7 C 59 % 1000,0 hPa 0,0 l/m 0 min 0 min 0 W/m 19,3 km/h (3 Bft) 97,14 %
10.05.2021 05:16 20,8 C 19,4 C 16,7 C 59 % 1000,0 hPa 0,0 l/m 0 min 0 min 0 W/m 25,7 km/h (4 Bft) 97,87 %
10.05.2021 05:18 20,7 C 19,4 C 16,1 C 59 % 1000,0 hPa 0,0 l/m 0 min 0 min 0 W/m 16,1 km/h (3 Bft) 98,08 %
10.05.2021 05:20 20,6 C 19,4 C 16,1 C 59 % 999,9 hPa 0,0 l/m 0 min 0 min 0 W/m 12,9 km/h (3 Bft) 97,87 %
10.05.2021 05:22 20,6 C 19,4 C 16,1 C 59 % 999,9 hPa 0,0 l/m 0 min 0 min 0 W/m 22,5 km/h (4 Bft) 97,87 %
10.05.2021 05:24 20,6 C 19,4 C 16,1 C 59 % 1000,0 hPa 0,0 l/m 0 min 0 min 0 W/m 16,1 km/h (3 Bft) 97,87 %
10.05.2021 05:26 20,6 C 19,4 C 16,1 C 59 % 1000,0 hPa 0,0 l/m 0 min 0 min 0 W/m 12,9 km/h (3 Bft) 97,87 %
10.05.2021 05:28 20,6 C 19,4 C 16,1 C 59 % 1000,1 hPa 0,0 l/m 0 min 0 min 0 W/m 22,5 km/h (4 Bft) 97,83 %
10.05.2021 05:30 20,6 C 19,4 C 16,7 C 59 % 1000,1 hPa 0,0 l/m 0 min 0 min 0 W/m 25,7 km/h (4 Bft) 97,87 %
10.05.2021 05:32 20,6 C 19,4 C 16,7 C 59 % 1000,1 hPa 0,0 l/m 0 min 0 min 0 W/m 25,7 km/h (4 Bft) 98,00 %
10.05.2021 05:34 20,6 C 20,0 C 16,7 C 59 % 1000,2 hPa 0,0 l/m 0 min 0 min 0 W/m 29,0 km/h (5 Bft) 95,74 %
10.05.2021 05:36 20,6 C 20,0 C 16,7 C 59 % 1000,1 hPa 0,0 l/m 0 min 0 min 0 W/m 22,5 km/h (4 Bft) 98,00 %
10.05.2021 05:38 20,7 C 20,0 C 16,7 C 59 % 1000,2 hPa 0,0 l/m 0 min 0 min 0 W/m 22,5 km/h (4 Bft) 97,83 %
10.05.2021 05:40 20,7 C 20,0 C 16,7 C 59 % 1000,2 hPa 0,0 l/m 0 min 0 min 0 W/m 22,5 km/h (4 Bft) 97,87 %
10.05.2021 05:42 20,7 C 20,0 C 16,7 C 59 % 1000,2 hPa 0,0 l/m 0 min 0 min 0 W/m 29,0 km/h (5 Bft) 97,87 %
10.05.2021 05:44 20,8 C 20,0 C 16,7 C 59 % 1000,2 hPa 0,0 l/m 0 min 0 min 0 W/m 25,7 km/h (4 Bft) 97,87 %
10.05.2021 05:46 20,8 C 20,0 C 16,7 C 59 % 1000,3 hPa 0,0 l/m 0 min 0 min 0 W/m 29,0 km/h (5 Bft) 97,87 %
10.05.2021 05:48 20,8 C 20,0 C 16,7 C 59 % 1000,3 hPa 0,0 l/m 0 min 0 min 0 W/m 25,7 km/h (4 Bft) 97,14 %
10.05.2021 05:50 20,8 C 20,0 C 16,7 C 58 % 1000,3 hPa 0,0 l/m 0 min 0 min 0 W/m 29,0 km/h (5 Bft) 97,87 %
10.05.2021 05:52 20,8 C 20,0 C 16,7 C 58 % 1000,1 hPa 0,0 l/m 0 min 0 min 0 W/m 25,7 km/h (4 Bft) 98,18 %
10.05.2021 05:54 20,9 C 20,0 C 16,7 C 58 % 1000,2 hPa 0,0 l/m 0 min 0 min 0 W/m 51,5 km/h (7 Bft) 100,00 %
10.05.2021 05:56 20,9 C 20,0 C 16,7 C 58 % 1000,1 hPa 0,0 l/m 0 min 0 min 0 W/m 19,3 km/h (3 Bft) 100,00 %
10.05.2021 05:58 20,9 C 20,0 C 16,7 C 58 % 1000,1 hPa 0,0 l/m 0 min 0 min 0 W/m 19,3 km/h (3 Bft) 100,00 %
10.05.2021 06:00 20,9 C 20,0 C 16,7 C 58 % 1000,1 hPa 0,0 l/m 0 min 0 min 0 W/m 29,0 km/h (5 Bft) 100,00 %
10.05.2021 06:02 20,9 C 20,0 C 16,7 C 58 % 1000,3 hPa 0,0 l/m 0 min 0 min 0 W/m 41,8 km/h (6 Bft) 97,92 %
10.05.2021 06:04 21,0 C 20,0 C 16,7 C 58 % 1000,2 hPa 0,0 l/m 0 min 0 min 0 W/m 32,2 km/h (5 Bft) 97,83 %
10.05.2021 06:06 21,0 C 20,0 C 16,7 C 59 % 1000,3 hPa 0,0 l/m 0 min 0 min 0 W/m 29,0 km/h (5 Bft) 97,87 %
10.05.2021 06:08 21,0 C 20,0 C 16,7 C 59 % 1000,3 hPa 0,0 l/m 0 min 0 min 0 W/m 25,7 km/h (4 Bft) 95,74 %
10.05.2021 06:10 21,0 C 20,0 C 16,7 C 59 % 1000,3 hPa 0,0 l/m 0 min 0 min 4 W/m 35,4 km/h (5 Bft) 97,87 %
10.05.2021 06:12 21,0 C 20,0 C 16,7 C 59 % 1000,3 hPa 0,0 l/m 0 min 0 min 5 W/m 32,2 km/h (5 Bft) 97,87 %
10.05.2021 06:14 21,0 C 20,0 C 16,7 C 59 % 1000,3 hPa 0,0 l/m 0 min 0 min 5 W/m 38,6 km/h (5 Bft) 97,83 %
10.05.2021 06:16 20,9 C 20,0 C 16,7 C 59 % 1000,2 hPa 0,0 l/m 0 min 0 min 8 W/m 35,4 km/h (5 Bft) 95,74 %
10.05.2021 06:18 20,9 C 20,0 C 16,7 C 59 % 1000,2 hPa 0,0 l/m 0 min 0 min 12 W/m 25,7 km/h (4 Bft) 97,87 %
10.05.2021 06:20 20,9 C 20,0 C 16,7 C 59 % 1000,2 hPa 0,0 l/m 0 min 0 min 18 W/m 25,7 km/h (4 Bft) 97,87 %
10.05.2021 06:22 20,9 C 20,0 C 16,7 C 59 % 1000,2 hPa 0,0 l/m 0 min 0 min 21 W/m 29,0 km/h (5 Bft) 97,87 %
10.05.2021 06:24 20,8 C 20,0 C 16,7 C 60 % 1000,3 hPa 0,0 l/m 0 min 0 min 24 W/m 16,1 km/h (3 Bft) 97,87 %
10.05.2021 06:26 20,8 C 19,4 C 16,7 C 60 % 1000,4 hPa 0,0 l/m 0 min 0 min 26 W/m 29,0 km/h (5 Bft) 93,48 %
10.05.2021 06:28 20,8 C 19,4 C 16,7 C 60 % 1000,5 hPa 0,0 l/m 0 min 0 min 26 W/m 22,5 km/h (4 Bft) 97,87 %
10.05.2021 06:30 20,7 C 19,4 C 16,7 C 60 % 1000,6 hPa 0,0 l/m 0 min 0 min 24 W/m 25,7 km/h (4 Bft) 97,87 %
10.05.2021 06:32 20,7 C 20,0 C 16,7 C 60 % 1000,6 hPa 0,0 l/m 0 min 0 min 20 W/m 29,0 km/h (5 Bft) 97,87 %
10.05.2021 06:34 20,7 C 20,0 C 16,7 C 60 % 1000,6 hPa 0,0 l/m 0 min 0 min 18 W/m 32,2 km/h (5 Bft) 97,87 %
10.05.2021 06:36 20,7 C 20,0 C 16,7 C 60 % 1000,6 hPa 0,0 l/m 0 min 0 min 16 W/m 29,0 km/h (5 Bft) 97,87 %
10.05.2021 06:38 20,7 C 20,0 C 16,7 C 60 % 1000,7 hPa 0,0 l/m 0 min 0 min 17 W/m 29,0 km/h (5 Bft) 97,83 %
10.05.2021 06:40 20,7 C 20,0 C 16,7 C 60 % 1000,6 hPa 0,0 l/m 0 min 0 min 16 W/m 25,7 km/h (4 Bft) 97,87 %
10.05.2021 06:42 20,7 C 20,0 C 16,7 C 60 % 1000,7 hPa 0,0 l/m 0 min 0 min 16 W/m 54,7 km/h (7 Bft) 95,74 %
10.05.2021 06:44 20,7 C 20,0 C 16,7 C 60 % 1000,7 hPa 0,0 l/m 0 min 0 min 14 W/m 25,7 km/h (4 Bft) 97,87 %
10.05.2021 06:46 20,7 C 19,4 C 16,7 C 60 % 1000,7 hPa 0,0 l/m 0 min 0 min 12 W/m 35,4 km/h (5 Bft) 100,00 %
10.05.2021 06:48 20,6 C 19,4 C 16,7 C 60 % 1000,8 hPa 0,0 l/m 0 min 0 min 13 W/m 29,0 km/h (5 Bft) 100,00 %
10.05.2021 06:50 20,6 C 19,4 C 16,7 C 60 % 1000,8 hPa 0,0 l/m 0 min 0 min 15 W/m 25,7 km/h (4 Bft) 100,00 %
10.05.2021 06:52 20,6 C 19,4 C 16,7 C 61 % 1000,8 hPa 0,0 l/m 0 min 0 min 19 W/m 25,7 km/h (4 Bft) 100,00 %
10.05.2021 06:54 20,6 C 19,4 C 16,7 C 61 % 1000,9 hPa 0,0 l/m 0 min 0 min 21 W/m 29,0 km/h (5 Bft) 95,74 %
10.05.2021 06:56 20,6 C 19,4 C 16,7 C 61 % 1001,0 hPa 0,0 l/m 0 min 0 min 21 W/m 32,2 km/h (5 Bft) 97,87 %
10.05.2021 06:58 20,6 C 19,4 C 16,7 C 61 % 1000,9 hPa 0,0 l/m 0 min 0 min 23 W/m 32,2 km/h (5 Bft) 97,87 %
10.05.2021 07:00 20,6 C 19,4 C 16,7 C 61 % 1000,9 hPa 0,0 l/m 0 min 0 min 28 W/m 35,4 km/h (5 Bft) 97,87 %
10.05.2021 07:02 20,5 C 19,4 C 16,7 C 61 % 1000,9 hPa 0,0 l/m 0 min 0 min 34 W/m 19,3 km/h (3 Bft) 97,83 %
10.05.2021 07:04 20,5 C 19,4 C 16,7 C 61 % 1001,1 hPa 0,0 l/m 0 min 0 min 43 W/m 25,7 km/h (4 Bft) 100,00 %
10.05.2021 07:06 20,5 C 19,4 C 16,7 C 61 % 1001,1 hPa 0,0 l/m 0 min 0 min 43 W/m 25,7 km/h (4 Bft) 100,00 %
10.05.2021 07:08 20,5 C 19,4 C 16,7 C 61 % 1001,2 hPa 0,0 l/m 0 min 0 min 35 W/m 22,5 km/h (4 Bft) 100,00 %
10.05.2021 07:12 20,5 C 19,4 C 16,7 C 62 % 1001,3 hPa 0,0 l/m 0 min 0 min 23 W/m 22,5 km/h (4 Bft) 98,11 %
10.05.2021 07:14 20,5 C 19,4 C 16,7 C 62 % 1001,3 hPa 0,0 l/m 0 min 0 min 22 W/m 22,5 km/h (4 Bft) 78,72 %
10.05.2021 07:16 20,4 C 19,4 C 16,7 C 62 % 1001,4 hPa 0,0 l/m 0 min 0 min 29 W/m 22,5 km/h (4 Bft) 70,21 %
10.05.2021 07:18 20,4 C 19,4 C 16,7 C 62 % 1001,2 hPa 0,0 l/m 0 min 0 min 34 W/m 32,2 km/h (5 Bft) 97,87 %
10.05.2021 07:20 20,4 C 19,4 C 16,1 C 62 % 1001,4 hPa 0,0 l/m 0 min 0 min 30 W/m 22,5 km/h (4 Bft) 97,83 %
10.05.2021 07:22 20,4 C 19,4 C 16,1 C 62 % 1001,4 hPa 0,0 l/m 0 min 0 min 26 W/m 19,3 km/h (3 Bft) 97,87 %
10.05.2021 07:24 20,3 C 19,4 C 16,1 C 63 % 1001,5 hPa 0,0 l/m 0 min 0 min 24 W/m 16,1 km/h (3 Bft) 97,87 %
10.05.2021 07:26 20,3 C 19,4 C 16,1 C 63 % 1001,6 hPa 0,0 l/m 0 min 0 min 27 W/m 38,6 km/h (5 Bft) 95,74 %
10.05.2021 07:28 20,3 C 19,4 C 16,1 C 63 % 1001,6 hPa 0,0 l/m 0 min 0 min 33 W/m 25,7 km/h (4 Bft) 95,74 %
10.05.2021 07:30 20,3 C 19,4 C 16,1 C 63 % 1001,6 hPa 0,0 l/m 0 min 0 min 35 W/m 29,0 km/h (5 Bft) 95,74 %
10.05.2021 07:32 20,3 C 19,4 C 16,1 C 63 % 1001,8 hPa 0,0 l/m 0 min 0 min 42 W/m 35,4 km/h (5 Bft) 91,30 %
10.05.2021 07:34 20,3 C 19,4 C 16,7 C 63 % 1001,8 hPa 0,0 l/m 0 min 0 min 42 W/m 38,6 km/h (5 Bft) 95,74 %
10.05.2021 07:36 20,2 C 19,4 C 16,1 C 63 % 1001,8 hPa 0,0 l/m 0 min 0 min 45 W/m 25,7 km/h (4 Bft) 97,87 %
10.05.2021 07:38 20,2 C 19,4 C 16,1 C 63 % 1001,8 hPa 0,0 l/m 0 min 0 min 52 W/m 32,2 km/h (5 Bft) 97,87 %
10.05.2021 07:40 20,2 C 19,4 C 16,7 C 63 % 1001,9 hPa 0,0 l/m 0 min 0 min 46 W/m 32,2 km/h (5 Bft) 97,87 %
10.05.2021 07:42 20,2 C 19,4 C 16,1 C 63 % 1001,7 hPa 0,0 l/m 0 min 0 min 34 W/m 25,7 km/h (4 Bft) 95,74 %
10.05.2021 07:44 20,2 C 19,4 C 16,1 C 63 % 1001,6 hPa 0,0 l/m 0 min 0 min 28 W/m 29,0 km/h (5 Bft) 97,83 %
10.05.2021 07:46 20,1 C 19,4 C 16,1 C 63 % 1001,6 hPa 0,0 l/m 0 min 0 min 31 W/m 25,7 km/h (4 Bft) 97,87 %
10.05.2021 07:48 20,1 C 19,4 C 16,1 C 64 % 1001,6 hPa 0,0 l/m 0 min 0 min 43 W/m 16,1 km/h (3 Bft) 97,87 %
10.05.2021 07:50 20,1 C 18,9 C 16,1 C 64 % 1001,6 hPa 0,0 l/m 0 min 0 min 47 W/m 19,3 km/h (3 Bft) 97,87 %
10.05.2021 07:52 20,1 C 18,9 C 16,1 C 64 % 1001,7 hPa 0,0 l/m 0 min 0 min 47 W/m 19,3 km/h (3 Bft) 97,87 %
10.05.2021 07:54 20,0 C 18,9 C 16,1 C 64 % 1001,7 hPa 0,0 l/m 0 min 0 min 51 W/m 19,3 km/h (3 Bft) 97,87 %
10.05.2021 07:56 20,0 C 18,9 C 16,1 C 65 % 1001,6 hPa 0,0 l/m 0 min 0 min 55 W/m 22,5 km/h (4 Bft) 97,83 %
10.05.2021 07:58 20,0 C 18,9 C 16,1 C 65 % 1001,7 hPa 0,0 l/m 0 min 0 min 55 W/m 19,3 km/h (3 Bft) 97,87 %
10.05.2021 08:00 20,0 C 18,9 C 16,1 C 65 % 1001,7 hPa 0,0 l/m 0 min 0 min 61 W/m 16,1 km/h (3 Bft) 93,62 %
10.05.2021 08:02 19,9 C 18,9 C 16,1 C 65 % 1001,7 hPa 0,0 l/m 0 min 0 min 74 W/m 22,5 km/h (4 Bft) 97,87 %
10.05.2021 08:04 19,9 C 18,9 C 16,1 C 65 % 1001,8 hPa 0,0 l/m 0 min 0 min 80 W/m 19,3 km/h (3 Bft) 95,74 %
10.05.2021 08:06 19,9 C 18,9 C 16,1 C 65 % 1001,8 hPa 0,0 l/m 0 min 0 min 73 W/m 22,5 km/h (4 Bft) 97,83 %
10.05.2021 08:08 19,9 C 18,9 C 16,1 C 66 % 1001,9 hPa 0,0 l/m 0 min 0 min 70 W/m 22,5 km/h (4 Bft) 97,87 %
10.05.2021 08:10 19,9 C 18,9 C 16,1 C 66 % 1002,0 hPa 0,0 l/m 0 min 0 min 82 W/m 12,9 km/h (3 Bft) 100,00 %
10.05.2021 08:12 19,8 C 18,9 C 16,1 C 66 % 1002,1 hPa 0,0 l/m 0 min 0 min 97 W/m 12,9 km/h (3 Bft) 100,00 %
10.05.2021 08:14 19,8 C 18,9 C 16,1 C 66 % 1002,2 hPa 0,0 l/m 0 min 2 min 112 W/m 19,3 km/h (3 Bft) 100,00 %
10.05.2021 08:16 19,8 C 18,9 C 16,1 C 66 % 1002,4 hPa 0,0 l/m 0 min 0 min 123 W/m 22,5 km/h (4 Bft) 97,87 %
10.05.2021 08:18 19,8 C 18,9 C 16,1 C 66 % 1002,5 hPa 0,0 l/m 0 min 0 min 119 W/m 19,3 km/h (3 Bft) 100,00 %
10.05.2021 08:20 19,8 C 18,9 C 16,1 C 66 % 1002,6 hPa 0,0 l/m 0 min 0 min 104 W/m 25,7 km/h (4 Bft) 100,00 %
10.05.2021 08:22 19,8 C 18,9 C 16,1 C 66 % 1002,5 hPa 0,0 l/m 0 min 0 min 98 W/m 19,3 km/h (3 Bft) 95,74 %
10.05.2021 08:24 19,8 C 18,9 C 16,1 C 66 % 1002,5 hPa 0,0 l/m 0 min 0 min 100 W/m 16,1 km/h (3 Bft) 97,87 %
10.05.2021 08:26 19,8 C 18,9 C 16,1 C 66 % 1002,6 hPa 0,0 l/m 0 min 0 min 101 W/m 16,1 km/h (3 Bft) 97,87 %
10.05.2021 08:28 19,8 C 19,4 C 16,1 C 67 % 1002,6 hPa 0,0 l/m 0 min 0 min 118 W/m 19,3 km/h (3 Bft) 97,87 %
10.05.2021 08:30 19,8 C 19,4 C 16,1 C 66 % 1002,6 hPa 0,0 l/m 0 min 0 min 124 W/m 19,3 km/h (3 Bft) 97,83 %
10.05.2021 08:32 19,8 C 19,4 C 16,1 C 66 % 1002,6 hPa 0,0 l/m 0 min 0 min 120 W/m 16,1 km/h (3 Bft) 95,74 %
10.05.2021 08:34 19,8 C 19,4 C 16,1 C 66 % 1002,6 hPa 0,0 l/m 0 min 0 min 118 W/m 19,3 km/h (3 Bft) 97,87 %
10.05.2021 08:36 19,8 C 19,4 C 16,1 C 67 % 1002,6 hPa 0,0 l/m 0 min 0 min 130 W/m 19,3 km/h (3 Bft) 97,87 %
10.05.2021 08:38 19,8 C 19,4 C 16,1 C 67 % 1002,6 hPa 0,0 l/m 0 min 0 min 140 W/m 19,3 km/h (3 Bft) 97,87 %
10.05.2021 08:40 19,8 C 19,4 C 16,7 C 67 % 1002,5 hPa 0,0 l/m 0 min 0 min 187 W/m 16,1 km/h (3 Bft) 97,87 %
10.05.2021 08:42 19,9 C 19,4 C 16,7 C 67 % 1002,7 hPa 0,0 l/m 2 min 0 min 253 W/m 19,3 km/h (3 Bft) 93,48 %
10.05.2021 08:44 19,9 C 20,6 C 16,7 C 67 % 1002,8 hPa 0,0 l/m 2 min 0 min 252 W/m 29,0 km/h (5 Bft) 95,74 %
10.05.2021 08:46 20,0 C 21,1 C 16,7 C 67 % 1002,7 hPa 0,0 l/m 2 min 0 min 246 W/m 22,5 km/h (4 Bft) 93,62 %
10.05.2021 08:48 20,0 C 21,1 C 17,3 C 66 % 1002,8 hPa 0,0 l/m 2 min 0 min 384 W/m 38,6 km/h (5 Bft) 95,74 %
10.05.2021 08:50 20,1 C 21,7 C 17,3 C 66 % 1002,7 hPa 0,0 l/m 2 min 0 min 453 W/m 35,4 km/h (5 Bft) 93,62 %
10.05.2021 08:52 20,2 C 21,7 C 17,3 C 65 % 1002,6 hPa 0,0 l/m 2 min 0 min 434 W/m 32,2 km/h (5 Bft) 95,74 %
10.05.2021 08:54 20,3 C 22,2 C 17,3 C 65 % 1002,6 hPa 0,0 l/m 2 min 0 min 283 W/m 35,4 km/h (5 Bft) 95,65 %
10.05.2021 08:56 20,4 C 23,3 C 17,8 C 65 % 1002,7 hPa 0,0 l/m 2 min 0 min 536 W/m 32,2 km/h (5 Bft) 95,74 %
10.05.2021 08:58 20,5 C 23,9 C 18,4 C 65 % 1002,6 hPa 0,0 l/m 2 min 0 min 526 W/m 19,3 km/h (3 Bft) 95,45 %
10.05.2021 09:00 20,6 C 23,3 C 18,9 C 65 % 1002,5 hPa 0,0 l/m 2 min 0 min 358 W/m 25,7 km/h (4 Bft) 95,74 %
10.05.2021 09:02 20,8 C 23,3 C 18,9 C 65 % 1002,5 hPa 0,0 l/m 2 min 0 min 365 W/m 25,7 km/h (4 Bft) 95,92 %
10.05.2021 09:04 20,8 C 22,8 C 18,9 C 64 % 1002,6 hPa 0,0 l/m 2 min 0 min 274 W/m 29,0 km/h (5 Bft) 93,62 %
10.05.2021 09:06 20,9 C 23,3 C 19,5 C 64 % 1002,6 hPa 0,0 l/m 2 min 0 min 295 W/m 22,5 km/h (4 Bft) 93,62 %
10.05.2021 09:08 21,0 C 23,3 C 19,5 C 64 % 1002,7 hPa 0,0 l/m 2 min 0 min 436 W/m 22,5 km/h (4 Bft) 96,00 %
10.05.2021 09:10 21,0 C 22,8 C 19,5 C 64 % 1002,8 hPa 0,0 l/m 2 min 0 min 512 W/m 22,5 km/h (4 Bft) 95,74 %
10.05.2021 09:12 21,1 C 22,8 C 19,5 C 64 % 1002,9 hPa 0,0 l/m 2 min 0 min 512 W/m 22,5 km/h (4 Bft) 95,65 %
10.05.2021 09:14 21,1 C 22,2 C 19,5 C 63 % 1003,0 hPa 0,0 l/m 2 min 0 min 317 W/m 25,7 km/h (4 Bft) 95,74 %
10.05.2021 09:16 21,0 C 21,7 C 18,9 C 63 % 1002,9 hPa 0,0 l/m 0 min 0 min 242 W/m 29,0 km/h (5 Bft) 93,62 %
10.05.2021 09:18 21,0 C 21,1 C 18,9 C 63 % 1002,9 hPa 0,0 l/m 2 min 0 min 270 W/m 25,7 km/h (4 Bft) 97,87 %
10.05.2021 09:20 21,0 C 20,6 C 18,4 C 64 % 1003,0 hPa 0,0 l/m 0 min 0 min 191 W/m 25,7 km/h (4 Bft) 93,62 %
10.05.2021 09:22 20,8 C 20,0 C 17,8 C 64 % 1003,2 hPa 0,0 l/m 0 min 0 min 91 W/m 29,0 km/h (5 Bft) 97,83 %
10.05.2021 09:24 20,6 C 20,0 C 17,3 C 63 % 1003,4 hPa 0,0 l/m 0 min 0 min 79 W/m 22,5 km/h (4 Bft) 97,87 %
10.05.2021 09:26 20,4 C 19,4 C 17,3 C 63 % 1003,4 hPa 0,0 l/m 0 min 0 min 81 W/m 25,7 km/h (4 Bft) 95,74 %
10.05.2021 09:28 20,3 C 19,4 C 16,7 C 64 % 1003,6 hPa 0,0 l/m 0 min 0 min 87 W/m 38,6 km/h (5 Bft) 97,87 %
10.05.2021 09:30 20,1 C 19,4 C 16,7 C 64 % 1003,6 hPa 0,0 l/m 0 min 0 min 96 W/m 22,5 km/h (4 Bft) 100,00 %
10.05.2021 09:32 20,0 C 18,9 C 16,7 C 64 % 1003,8 hPa 0,0 l/m 0 min 0 min 106 W/m 29,0 km/h (5 Bft) 100,00 %
10.05.2021 09:34 19,9 C 18,9 C 16,1 C 64 % 1003,8 hPa 0,0 l/m 0 min 0 min 70 W/m 41,8 km/h (6 Bft) 100,00 %
10.05.2021 09:36 19,8 C 18,9 C 16,1 C 65 % 1003,8 hPa 0,0 l/m 0 min 0 min 52 W/m 45,1 km/h (6 Bft) 97,87 %
10.05.2021 09:38 19,6 C 18,9 C 16,1 C 65 % 1003,9 hPa 0,0 l/m 0 min 0 min 66 W/m 25,7 km/h (4 Bft) 100,00 %
10.05.2021 09:40 19,6 C 18,9 C 16,1 C 65 % 1004,0 hPa 0,0 l/m 0 min 0 min 63 W/m 22,5 km/h (4 Bft) 100,00 %
10.05.2021 09:42 19,5 C 18,9 C 16,1 C 66 % 1004,0 hPa 0,0 l/m 0 min 0 min 67 W/m 29,0 km/h (5 Bft) 100,00 %
10.05.2021 09:44 19,4 C 18,9 C 16,1 C 66 % 1003,8 hPa 0,0 l/m 0 min 0 min 85 W/m 22,5 km/h (4 Bft) 100,00 %
10.05.2021 09:46 19,4 C 18,9 C 16,1 C 66 % 1003,7 hPa 0,0 l/m 0 min 0 min 121 W/m 25,7 km/h (4 Bft) 100,00 %
10.05.2021 09:48 19,3 C 18,9 C 16,1 C 66 % 1003,8 hPa 0,0 l/m 0 min 0 min 149 W/m 29,0 km/h (5 Bft) 100,00 %
10.05.2021 09:50 19,3 C 18,9 C 16,1 C 66 % 1003,8 hPa 0,0 l/m 0 min 0 min 171 W/m 29,0 km/h (5 Bft) 100,00 %
10.05.2021 09:52 19,3 C 18,9 C 16,1 C 66 % 1004,0 hPa 0,0 l/m 0 min 0 min 195 W/m 25,7 km/h (4 Bft) 100,00 %
10.05.2021 09:54 19,3 C 18,9 C 16,1 C 67 % 1004,0 hPa 0,0 l/m 0 min 0 min 223 W/m 32,2 km/h (5 Bft) 100,00 %
10.05.2021 09:56 19,3 C 18,9 C 16,1 C 67 % 1004,0 hPa 0,0 l/m 0 min 0 min 214 W/m 16,1 km/h (3 Bft) 100,00 %
10.05.2021 09:58 19,3 C 18,9 C 16,1 C 67 % 1004,2 hPa 0,0 l/m 0 min 0 min 174 W/m 32,2 km/h (5 Bft) 100,00 %
10.05.2021 10:00 19,3 C 18,9 C 16,1 C 67 % 1004,2 hPa 0,0 l/m 0 min 0 min 148 W/m 25,7 km/h (4 Bft) 100,00 %
10.05.2021 10:02 19,3 C 18,9 C 16,1 C 67 % 1004,2 hPa 0,0 l/m 0 min 0 min 161 W/m 35,4 km/h (5 Bft) 100,00 %
10.05.2021 10:04 19,2 C 18,9 C 16,1 C 67 % 1004,3 hPa 0,0 l/m 0 min 0 min 209 W/m 38,6 km/h (5 Bft) 100,00 %
10.05.2021 10:06 19,2 C 18,9 C 16,1 C 67 % 1004,2 hPa 0,0 l/m 0 min 0 min 258 W/m 48,3 km/h (6 Bft) 97,87 %
10.05.2021 10:08 19,2 C 19,4 C 16,7 C 67 % 1004,2 hPa 0,0 l/m 2 min 0 min 322 W/m 35,4 km/h (5 Bft) 100,00 %
10.05.2021 10:10 19,3 C 19,4 C 16,7 C 67 % 1004,2 hPa 0,0 l/m 2 min 0 min 330 W/m 35,4 km/h (5 Bft) 100,00 %
10.05.2021 10:12 19,3 C 19,4 C 16,7 C 67 % 1004,1 hPa 0,0 l/m 0 min 0 min 256 W/m 19,3 km/h (3 Bft) 100,00 %
10.05.2021 10:14 19,4 C 19,4 C 16,7 C 67 % 1004,0 hPa 0,0 l/m 0 min 0 min 203 W/m 22,5 km/h (4 Bft) 97,83 %
10.05.2021 10:16 19,3 C 18,9 C 16,7 C 67 % 1004,0 hPa 0,0 l/m 0 min 0 min 180 W/m 38,6 km/h (5 Bft) 100,00 %
10.05.2021 10:18 19,3 C 18,9 C 16,1 C 67 % 1004,1 hPa 0,0 l/m 0 min 0 min 167 W/m 48,3 km/h (6 Bft) 100,00 %
10.05.2021 10:20 19,2 C 18,9 C 16,1 C 67 % 1004,2 hPa 0,0 l/m 0 min 0 min 170 W/m 41,8 km/h (6 Bft) 100,00 %
10.05.2021 10:22 19,1 C 18,9 C 16,1 C 67 % 1004,3 hPa 0,0 l/m 0 min 0 min 157 W/m 35,4 km/h (5 Bft) 100,00 %
10.05.2021 10:24 19,1 C 18,9 C 16,1 C 67 % 1004,4 hPa 0,0 l/m 0 min 0 min 162 W/m 32,2 km/h (5 Bft) 97,83 %
10.05.2021 10:26 19,1 C 18,9 C 16,1 C 68 % 1004,5 hPa 0,0 l/m 0 min 0 min 202 W/m 29,0 km/h (5 Bft) 97,87 %
10.05.2021 10:28 19,1 C 18,9 C 16,1 C 68 % 1004,7 hPa 0,0 l/m 0 min 0 min 251 W/m 29,0 km/h (5 Bft) 97,87 %
10.05.2021 10:30 19,1 C 18,9 C 16,1 C 68 % 1004,7 hPa 0,0 l/m 0 min 0 min 242 W/m 29,0 km/h (5 Bft) 97,87 %
10.05.2021 10:32 19,1 C 18,9 C 16,1 C 68 % 1004,8 hPa 0,0 l/m 0 min 0 min 249 W/m 25,7 km/h (4 Bft) 97,87 %
10.05.2021 10:34 19,1 C 18,9 C 16,7 C 68 % 1004,7 hPa 0,0 l/m 0 min 0 min 286 W/m 22,5 km/h (4 Bft) 97,87 %
10.05.2021 10:36 19,1 C 19,4 C 16,7 C 69 % 1004,6 hPa 0,0 l/m 0 min 0 min 286 W/m 25,7 km/h (4 Bft) 95,65 %
10.05.2021 10:38 19,2 C 19,4 C 16,7 C 68 % 1004,5 hPa 0,0 l/m 0 min 0 min 296 W/m 19,3 km/h (3 Bft) 97,92 %
10.05.2021 10:40 19,3 C 19,4 C 16,7 C 68 % 1004,6 hPa 0,0 l/m 0 min 0 min 272 W/m 19,3 km/h (3 Bft) 97,87 %
10.05.2021 10:42 19,3 C 19,4 C 16,7 C 68 % 1004,6 hPa 0,0 l/m 0 min 0 min 228 W/m 29,0 km/h (5 Bft) 93,62 %
10.05.2021 10:44 19,2 C 18,9 C 16,7 C 68 % 1004,5 hPa 0,0 l/m 0 min 0 min 192 W/m 29,0 km/h (5 Bft) 100,00 %
10.05.2021 10:46 19,2 C 18,9 C 16,1 C 68 % 1004,6 hPa 0,0 l/m 0 min 0 min 150 W/m 29,0 km/h (5 Bft) 93,62 %
10.05.2021 10:48 19,1 C 18,9 C 16,1 C 68 % 1004,4 hPa 0,0 l/m 0 min 0 min 128 W/m 54,7 km/h (7 Bft) 95,65 %
10.05.2021 10:50 19,0 C 18,9 C 16,1 C 68 % 1004,4 hPa 0,0 l/m 0 min 0 min 129 W/m 25,7 km/h (4 Bft) 97,87 %
10.05.2021 10:52 19,0 C 18,3 C 16,1 C 68 % 1004,6 hPa 0,0 l/m 0 min 0 min 134 W/m 19,3 km/h (3 Bft) 97,87 %
10.05.2021 10:54 19,0 C 18,9 C 16,1 C 69 % 1004,8 hPa 0,0 l/m 0 min 0 min 138 W/m 22,5 km/h (4 Bft) 97,87 %
10.05.2021 10:56 19,0 C 18,3 C 16,1 C 68 % 1005,0 hPa 0,0 l/m 0 min 0 min 182 W/m 38,6 km/h (5 Bft) 97,87 %
10.05.2021 10:58 18,9 C 18,3 C 16,1 C 68 % 1004,9 hPa 0,0 l/m 0 min 0 min 225 W/m 41,8 km/h (6 Bft) 95,74 %
10.05.2021 11:00 18,9 C 18,3 C 15,6 C 68 % 1005,0 hPa 0,0 l/m 0 min 0 min 225 W/m 41,8 km/h (6 Bft) 97,83 %
10.05.2021 11:02 18,9 C 18,3 C 15,6 C 68 % 1005,1 hPa 0,0 l/m 0 min 0 min 149 W/m 32,2 km/h (5 Bft) 95,74 %
10.05.2021 11:04 18,8 C 18,3 C 15,6 C 68 % 1005,1 hPa 0,0 l/m 0 min 0 min 115 W/m 45,1 km/h (6 Bft) 97,87 %
10.05.2021 11:06 18,8 C 18,3 C 15,6 C 68 % 1005,0 hPa 0,0 l/m 0 min 0 min 101 W/m 41,8 km/h (6 Bft) 97,87 %
10.05.2021 11:09 18,6 C 18,3 C 15,6 C 67 % 1004,8 hPa 0,0 l/m 0 min 0 min 122 W/m 35,4 km/h (5 Bft) 97,14 %
10.05.2021 11:10 18,6 C 18,3 C 15,6 C 67 % 1004,8 hPa 0,0 l/m 0 min 0 min 164 W/m 51,5 km/h (7 Bft) 100,00 %
10.05.2021 11:12 18,6 C 18,3 C 15,6 C 67 % 1005,0 hPa 0,0 l/m 0 min 0 min 188 W/m 45,1 km/h (6 Bft) 95,65 %
10.05.2021 11:14 18,6 C 18,3 C 15,6 C 67 % 1005,0 hPa 0,0 l/m 0 min 0 min 188 W/m 41,8 km/h (6 Bft) 97,87 %
10.05.2021 11:16 18,6 C 18,3 C 15,6 C 67 % 1005,2 hPa 0,0 l/m 0 min 0 min 166 W/m 19,3 km/h (3 Bft) 97,87 %
10.05.2021 11:18 18,5 C 17,8 C 15,6 C 67 % 1005,3 hPa 0,0 l/m 0 min 0 min 150 W/m 41,8 km/h (6 Bft) 95,74 %
10.05.2021 11:20 18,5 C 17,8 C 15,6 C 67 % 1005,3 hPa 0,0 l/m 0 min 0 min 144 W/m 45,1 km/h (6 Bft) 97,87 %
10.05.2021 11:22 18,5 C 17,8 C 15,6 C 68 % 1005,3 hPa 0,0 l/m 0 min 0 min 156 W/m 32,2 km/h (5 Bft) 97,83 %
10.05.2021 11:24 18,5 C 17,8 C 15,6 C 68 % 1005,3 hPa 0,0 l/m 0 min 0 min 172 W/m 35,4 km/h (5 Bft) 97,87 %
10.05.2021 11:26 18,5 C 18,3 C 15,6 C 68 % 1005,2 hPa 0,0 l/m 0 min 0 min 225 W/m 25,7 km/h (4 Bft) 97,87 %
10.05.2021 11:28 18,5 C 18,3 C 15,6 C 68 % 1005,2 hPa 0,0 l/m 0 min 0 min 292 W/m 35,4 km/h (5 Bft) 97,87 %
10.05.2021 11:30 18,5 C 18,3 C 15,6 C 68 % 1005,2 hPa 0,0 l/m 0 min 0 min 334 W/m 35,4 km/h (5 Bft) 97,87 %
10.05.2021 11:32 18,5 C 18,9 C 16,1 C 68 % 1005,3 hPa 0,0 l/m 0 min 0 min 348 W/m 32,2 km/h (5 Bft) 97,87 %
10.05.2021 11:34 18,6 C 18,9 C 16,1 C 67 % 1005,2 hPa 0,0 l/m 2 min 0 min 369 W/m 35,4 km/h (5 Bft) 97,83 %
10.05.2021 11:36 18,6 C 18,9 C 16,1 C 67 % 1005,2 hPa 0,0 l/m 2 min 0 min 379 W/m 35,4 km/h (5 Bft) 95,74 %
10.05.2021 11:38 18,8 C 18,9 C 16,7 C 67 % 1005,2 hPa 0,0 l/m 2 min 0 min 395 W/m 32,2 km/h (5 Bft) 97,87 %
10.05.2021 11:40 18,8 C 18,9 C 16,7 C 67 % 1005,2 hPa 0,0 l/m 2 min 0 min 385 W/m 22,5 km/h (4 Bft) 95,74 %
10.05.2021 11:42 18,9 C 19,4 C 16,7 C 67 % 1005,2 hPa 0,0 l/m 0 min 0 min 373 W/m 25,7 km/h (4 Bft) 95,74 %
10.05.2021 11:44 19,0 C 19,4 C 16,7 C 67 % 1005,3 hPa 0,0 l/m 0 min 0 min 353 W/m 25,7 km/h (4 Bft) 95,74 %
10.05.2021 11:46 19,0 C 19,4 C 16,7 C 67 % 1005,3 hPa 0,0 l/m 0 min 0 min 356 W/m 19,3 km/h (3 Bft) 95,65 %
10.05.2021 11:48 19,0 C 19,4 C 16,7 C 66 % 1005,5 hPa 0,0 l/m 0 min 0 min 357 W/m 45,1 km/h (6 Bft) 95,74 %
10.05.2021 11:50 19,1 C 19,4 C 16,7 C 66 % 1005,5 hPa 0,0 l/m 0 min 0 min 349 W/m 25,7 km/h (4 Bft) 93,62 %
10.05.2021 11:52 19,1 C 18,9 C 16,7 C 66 % 1005,5 hPa 0,0 l/m 0 min 0 min 342 W/m 25,7 km/h (4 Bft) 93,62 %
10.05.2021 11:54 19,1 C 18,9 C 16,7 C 66 % 1005,6 hPa 0,0 l/m 0 min 0 min 335 W/m 38,6 km/h (5 Bft) 95,74 %
10.05.2021 11:56 19,1 C 19,4 C 16,7 C 66 % 1005,7 hPa 0,0 l/m 0 min 0 min 366 W/m 25,7 km/h (4 Bft) 95,74 %
10.05.2021 11:58 19,1 C 19,4 C 16,7 C 67 % 1005,7 hPa 0,0 l/m 2 min 0 min 392 W/m 32,2 km/h (5 Bft) 95,65 %
10.05.2021 12:00 19,1 C 18,9 C 16,7 C 67 % 1005,8 hPa 0,0 l/m 0 min 0 min 295 W/m 32,2 km/h (5 Bft) 93,62 %
10.05.2021 12:02 19,1 C 18,9 C 16,7 C 67 % 1005,8 hPa 0,0 l/m 0 min 0 min 244 W/m 25,7 km/h (4 Bft) 97,92 %
10.05.2021 12:04 19,1 C 18,9 C 16,7 C 67 % 1005,9 hPa 0,0 l/m 0 min 0 min 242 W/m 38,6 km/h (5 Bft) 97,87 %
10.05.2021 12:08 19,1 C 18,9 C 16,1 C 67 % 1006,0 hPa 0,0 l/m 0 min 0 min 210 W/m 29,0 km/h (5 Bft) 96,81 %
10.05.2021 12:10 19,0 C 18,9 C 16,1 C 67 % 1006,1 hPa 0,0 l/m 0 min 0 min 207 W/m 32,2 km/h (5 Bft) 97,83 %
10.05.2021 12:12 19,0 C 18,3 C 16,1 C 68 % 1006,0 hPa 0,0 l/m 0 min 0 min 189 W/m 25,7 km/h (4 Bft) 97,87 %
10.05.2021 12:14 18,9 C 18,3 C 16,1 C 68 % 1006,1 hPa 0,0 l/m 0 min 0 min 221 W/m 29,0 km/h (5 Bft) 97,87 %
10.05.2021 12:16 18,9 C 18,3 C 16,1 C 68 % 1006,1 hPa 0,0 l/m 0 min 0 min 209 W/m 22,5 km/h (4 Bft) 97,87 %
10.05.2021 12:18 18,8 C 18,3 C 15,6 C 68 % 1006,2 hPa 0,0 l/m 0 min 0 min 177 W/m 35,4 km/h (5 Bft) 97,87 %
10.05.2021 12:20 18,7 C 18,3 C 15,6 C 68 % 1006,2 hPa 0,0 l/m 0 min 0 min 145 W/m 41,8 km/h (6 Bft) 97,87 %
10.05.2021 12:22 18,6 C 17,8 C 15,6 C 69 % 1006,6 hPa 0,0 l/m 0 min 0 min 130 W/m 29,0 km/h (5 Bft) 97,83 %
10.05.2021 12:24 18,5 C 17,8 C 15,6 C 69 % 1006,5 hPa 0,0 l/m 0 min 0 min 126 W/m 29,0 km/h (5 Bft) 97,87 %
10.05.2021 12:26 18,4 C 17,8 C 15,6 C 69 % 1006,4 hPa 0,0 l/m 0 min 0 min 157 W/m 32,2 km/h (5 Bft) 95,74 %
10.05.2021 12:28 18,4 C 17,8 C 15,6 C 70 % 1006,4 hPa 0,0 l/m 0 min 0 min 168 W/m 32,2 km/h (5 Bft) 97,87 %
10.05.2021 12:30 18,4 C 17,8 C 15,6 C 70 % 1006,4 hPa 0,0 l/m 0 min 0 min 144 W/m 32,2 km/h (5 Bft) 95,74 %
10.05.2021 12:32 18,3 C 17,8 C 15,6 C 70 % 1006,4 hPa 0,0 l/m 0 min 0 min 116 W/m 19,3 km/h (3 Bft) 97,83 %
10.05.2021 12:34 18,4 C 17,8 C 15,6 C 71 % 1006,5 hPa 0,0 l/m 0 min 0 min 122 W/m 22,5 km/h (4 Bft) 97,87 %
10.05.2021 12:36 18,3 C 17,8 C 15,0 C 70 % 1006,7 hPa 0,0 l/m 0 min 0 min 117 W/m 45,1 km/h (6 Bft) 97,87 %
10.05.2021 12:38 18,2 C 17,8 C 15,0 C 71 % 1006,5 hPa 0,0 l/m 0 min 0 min 124 W/m 25,7 km/h (4 Bft) 100,00 %
10.05.2021 12:40 18,1 C 17,8 C 15,0 C 71 % 1006,5 hPa 0,0 l/m 0 min 0 min 145 W/m 19,3 km/h (3 Bft) 100,00 %
10.05.2021 12:42 18,1 C 17,8 C 15,0 C 72 % 1006,4 hPa 0,0 l/m 0 min 0 min 151 W/m 25,7 km/h (4 Bft) 97,87 %
10.05.2021 12:44 18,1 C 17,8 C 15,0 C 72 % 1006,4 hPa 0,0 l/m 0 min 0 min 151 W/m 29,0 km/h (5 Bft) 100,00 %
10.05.2021 12:46 18,1 C 17,8 C 15,0 C 72 % 1006,4 hPa 0,0 l/m 0 min 0 min 149 W/m 16,1 km/h (3 Bft) 100,00 %
10.05.2021 12:48 18,1 C 17,8 C 15,0 C 72 % 1006,5 hPa 0,0 l/m 0 min 0 min 179 W/m 19,3 km/h (3 Bft) 97,87 %
10.05.2021 12:50 18,1 C 17,8 C 15,0 C 72 % 1006,5 hPa 0,0 l/m 0 min 0 min 246 W/m 29,0 km/h (5 Bft) 100,00 %
10.05.2021 12:52 18,1 C 17,8 C 15,0 C 73 % 1006,5 hPa 0,0 l/m 0 min 0 min 250 W/m 19,3 km/h (3 Bft) 95,74 %
10.05.2021 12:54 18,1 C 18,3 C 15,6 C 73 % 1006,5 hPa 0,0 l/m 0 min 0 min 235 W/m 22,5 km/h (4 Bft) 97,87 %
10.05.2021 12:56 18,1 C 18,3 C 15,6 C 73 % 1006,5 hPa 0,0 l/m 0 min 0 min 299 W/m 22,5 km/h (4 Bft) 100,00 %
10.05.2021 12:58 18,2 C 18,9 C 16,1 C 73 % 1006,6 hPa 0,0 l/m 2 min 0 min 416 W/m 19,3 km/h (3 Bft) 100,00 %
10.05.2021 13:00 18,4 C 19,4 C 16,7 C 73 % 1006,7 hPa 0,0 l/m 2 min 0 min 531 W/m 32,2 km/h (5 Bft) 100,00 %
10.05.2021 13:02 18,5 C 20,0 C 17,8 C 73 % 1006,8 hPa 0,0 l/m 2 min 0 min 627 W/m 32,2 km/h (5 Bft) 100,00 %
10.05.2021 13:04 18,6 C 20,0 C 18,4 C 73 % 1006,8 hPa 0,0 l/m 2 min 0 min 595 W/m 35,4 km/h (5 Bft) 100,00 %
10.05.2021 13:06 18,8 C 20,0 C 18,4 C 72 % 1006,6 hPa 0,0 l/m 2 min 0 min 611 W/m 29,0 km/h (5 Bft) 100,00 %
10.05.2021 13:08 18,9 C 20,6 C 19,5 C 71 % 1006,5 hPa 0,0 l/m 2 min 0 min 665 W/m 25,7 km/h (4 Bft) 100,00 %
10.05.2021 13:10 19,0 C 20,6 C 19,5 C 71 % 1006,6 hPa 0,0 l/m 2 min 0 min 713 W/m 25,7 km/h (4 Bft) 97,87 %
10.05.2021 13:12 19,1 C 20,0 C 18,9 C 71 % 1006,7 hPa 0,0 l/m 2 min 0 min 432 W/m 22,5 km/h (4 Bft) 100,00 %
10.05.2021 13:14 19,0 C 19,4 C 17,8 C 70 % 1006,8 hPa 0,0 l/m 0 min 0 min 373 W/m 32,2 km/h (5 Bft) 100,00 %
10.05.2021 13:16 19,0 C 19,4 C 17,3 C 70 % 1006,8 hPa 0,0 l/m 0 min 0 min 359 W/m 29,0 km/h (5 Bft) 100,00 %
10.05.2021 13:18 19,0 C 18,9 C 17,3 C 70 % 1006,8 hPa 0,0 l/m 0 min 0 min 343 W/m 38,6 km/h (5 Bft) 100,00 %
10.05.2021 13:20 18,9 C 18,9 C 17,3 C 70 % 1006,8 hPa 0,0 l/m 0 min 0 min 330 W/m 38,6 km/h (5 Bft) 97,87 %
10.05.2021 13:22 18,9 C 18,9 C 16,7 C 70 % 1006,8 hPa 0,0 l/m 0 min 0 min 282 W/m 32,2 km/h (5 Bft) 100,00 %
10.05.2021 13:24 18,8 C 18,9 C 16,7 C 70 % 1006,9 hPa 0,0 l/m 0 min 0 min 186 W/m 35,4 km/h (5 Bft) 100,00 %
10.05.2021 13:26 18,8 C 18,9 C 16,7 C 71 % 1006,8 hPa 0,0 l/m 0 min 0 min 216 W/m 19,3 km/h (3 Bft) 100,00 %
10.05.2021 13:28 18,8 C 18,9 C 16,1 C 70 % 1006,8 hPa 0,0 l/m 0 min 0 min 207 W/m 35,4 km/h (5 Bft) 97,83 %
10.05.2021 13:30 18,8 C 18,9 C 16,1 C 70 % 1006,9 hPa 0,0 l/m 0 min 0 min 191 W/m 22,5 km/h (4 Bft) 100,00 %
10.05.2021 13:32 18,8 C 18,9 C 16,7 C 70 % 1006,9 hPa 0,0 l/m 0 min 0 min 258 W/m 19,3 km/h (3 Bft) 100,00 %
10.05.2021 13:34 18,8 C 18,9 C 16,7 C 70 % 1006,9 hPa 0,0 l/m 0 min 0 min 279 W/m 25,7 km/h (4 Bft) 100,00 %
10.05.2021 13:36 18,8 C 18,9 C 16,7 C 70 % 1007,0 hPa 0,0 l/m 0 min 0 min 178 W/m 29,0 km/h (5 Bft) 100,00 %
10.05.2021 13:38 18,8 C 18,3 C 16,1 C 70 % 1007,1 hPa 0,0 l/m 0 min 0 min 198 W/m 19,3 km/h (3 Bft) 97,87 %
10.05.2021 13:40 18,8 C 18,3 C 16,1 C 71 % 1007,1 hPa 0,0 l/m 0 min 0 min 173 W/m 29,0 km/h (5 Bft) 100,00 %
10.05.2021 13:42 18,8 C 18,3 C 16,1 C 70 % 1007,2 hPa 0,0 l/m 0 min 0 min 89 W/m 22,5 km/h (4 Bft) 97,87 %
10.05.2021 13:44 18,7 C 17,8 C 15,6 C 70 % 1007,3 hPa 0,0 l/m 0 min 0 min 49 W/m 19,3 km/h (3 Bft) 97,87 %
10.05.2021 13:46 18,1 C 16,7 C 14,5 C 72 % 1007,4 hPa 0,0 l/m 0 min 0 min 33 W/m 16,1 km/h (3 Bft) 97,87 %
10.05.2021 13:48 17,6 C 16,1 C 14,5 C 73 % 1007,6 hPa 0,0 l/m 0 min 0 min 33 W/m 12,9 km/h (3 Bft) 95,74 %
10.05.2021 13:50 17,3 C 16,1 C 13,9 C 75 % 1007,6 hPa 0,0 l/m 0 min 0 min 62 W/m 25,7 km/h (4 Bft) 97,87 %
10.05.2021 13:52 17,0 C 15,6 C 13,4 C 77 % 1007,8 hPa 0,0 l/m 0 min 0 min 76 W/m 22,5 km/h (4 Bft) 97,83 %
10.05.2021 13:54 16,7 C 15,6 C 12,8 C 77 % 1007,9 hPa 0,0 l/m 0 min 2 min 60 W/m 9,7 km/h (2 Bft) 93,62 %
10.05.2021 13:56 16,5 C 15,6 C 12,8 C 79 % 1008,0 hPa 0,0 l/m 0 min 2 min 36 W/m 19,3 km/h (3 Bft) 93,62 %
10.05.2021 13:58 16,2 C 15,0 C 12,3 C 80 % 1008,2 hPa 0,0 l/m 0 min 2 min 36 W/m 22,5 km/h (4 Bft) 93,62 %
10.05.2021 14:00 16,0 C 14,4 C 12,3 C 82 % 1008,2 hPa 0,0 l/m 0 min 2 min 36 W/m 16,1 km/h (3 Bft) 95,74 %
10.05.2021 14:02 15,8 C 14,4 C 11,7 C 83 % 1008,2 hPa 0,0 l/m 0 min 0 min 49 W/m 16,1 km/h (3 Bft) 95,74 %
10.05.2021 14:04 15,6 C 14,4 C 11,7 C 85 % 1008,2 hPa 0,0 l/m 0 min 0 min 77 W/m 12,9 km/h (3 Bft) 95,65 %
10.05.2021 14:06 15,5 C 14,4 C 11,7 C 85 % 1008,1 hPa 0,0 l/m 0 min 0 min 120 W/m 16,1 km/h (3 Bft) 95,74 %
10.05.2021 14:08 15,4 C 14,4 C 12,3 C 85 % 1008,1 hPa 0,0 l/m 0 min 0 min 131 W/m 12,9 km/h (3 Bft) 93,62 %
10.05.2021 14:10 15,3 C 14,4 C 12,3 C 86 % 1008,2 hPa 0,0 l/m 0 min 0 min 117 W/m 19,3 km/h (3 Bft) 93,62 %
10.05.2021 14:12 15,1 C 14,4 C 12,3 C 86 % 1008,2 hPa 0,0 l/m 0 min 0 min 105 W/m 22,5 km/h (4 Bft) 93,62 %
10.05.2021 14:14 15,1 C 15,0 C 12,3 C 86 % 1008,2 hPa 0,0 l/m 0 min 0 min 111 W/m 6,4 km/h (2 Bft) 95,74 %
10.05.2021 14:16 15,1 C 15,0 C 12,3 C 86 % 1008,2 hPa 0,0 l/m 0 min 0 min 136 W/m 19,3 km/h (3 Bft) 95,65 %
10.05.2021 14:18 15,0 C 15,0 C 12,3 C 86 % 1008,2 hPa 0,0 l/m 0 min 0 min 155 W/m 16,1 km/h (3 Bft) 95,74 %
10.05.2021 14:20 15,1 C 15,0 C 12,8 C 86 % 1008,3 hPa 0,0 l/m 0 min 0 min 184 W/m 12,9 km/h (3 Bft) 95,74 %
10.05.2021 14:22 15,1 C 15,0 C 12,8 C 86 % 1008,3 hPa 0,0 l/m 0 min 0 min 213 W/m 12,9 km/h (3 Bft) 95,74 %
10.05.2021 14:24 15,1 C 15,0 C 12,8 C 86 % 1008,4 hPa 0,0 l/m 0 min 0 min 190 W/m 12,9 km/h (3 Bft) 95,74 %
10.05.2021 14:26 15,1 C 15,6 C 12,8 C 86 % 1008,3 hPa 0,0 l/m 0 min 0 min 141 W/m 9,7 km/h (2 Bft) 95,65 %
10.05.2021 14:28 15,2 C 15,6 C 12,8 C 86 % 1008,4 hPa 0,0 l/m 0 min 0 min 132 W/m 12,9 km/h (3 Bft) 93,62 %
10.05.2021 14:30 15,2 C 15,6 C 13,4 C 86 % 1008,4 hPa 0,0 l/m 0 min 0 min 112 W/m 6,4 km/h (2 Bft) 93,62 %
10.05.2021 14:32 15,3 C 15,0 C 12,8 C 86 % 1008,3 hPa 0,0 l/m 0 min 0 min 111 W/m 12,9 km/h (3 Bft) 93,62 %
10.05.2021 14:34 15,3 C 15,0 C 12,8 C 86 % 1008,3 hPa 0,0 l/m 0 min 0 min 104 W/m 12,9 km/h (3 Bft) 100,00 %
10.05.2021 14:36 15,3 C 15,0 C 12,8 C 86 % 1008,3 hPa 0,0 l/m 0 min 0 min 111 W/m 6,4 km/h (2 Bft) 97,87 %
10.05.2021 14:38 15,3 C 15,0 C 12,8 C 86 % 1008,3 hPa 0,0 l/m 0 min 0 min 120 W/m 9,7 km/h (2 Bft) 97,83 %
10.05.2021 14:40 15,2 C 15,0 C 12,8 C 86 % 1008,3 hPa 0,0 l/m 0 min 0 min 117 W/m 6,4 km/h (2 Bft) 97,87 %
10.05.2021 14:42 15,3 C 15,0 C 12,8 C 86 % 1008,3 hPa 0,0 l/m 0 min 0 min 125 W/m 6,4 km/h (2 Bft) 100,00 %
10.05.2021 14:44 15,3 C 15,0 C 12,8 C 86 % 1008,3 hPa 0,0 l/m 0 min 0 min 115 W/m 6,4 km/h (2 Bft) 100,00 %
10.05.2021 14:46 15,3 C 15,6 C 12,8 C 86 % 1008,4 hPa 0,0 l/m 0 min 0 min 114 W/m 6,4 km/h (2 Bft) 97,87 %
10.05.2021 14:48 15,3 C 15,6 C 13,4 C 85 % 1008,4 hPa 0,0 l/m 0 min 0 min 127 W/m 12,9 km/h (3 Bft) 100,00 %
10.05.2021 14:50 15,3 C 15,6 C 13,4 C 85 % 1008,3 hPa 0,0 l/m 0 min 0 min 137 W/m 6,4 km/h (2 Bft) 97,83 %
10.05.2021 14:52 15,3 C 15,6 C 13,4 C 85 % 1008,3 hPa 0,0 l/m 0 min 0 min 192 W/m 12,9 km/h (3 Bft) 100,00 %
10.05.2021 14:54 15,4 C 15,6 C 13,4 C 85 % 1008,4 hPa 0,0 l/m 0 min 0 min 214 W/m 6,4 km/h (2 Bft) 100,00 %
10.05.2021 14:56 15,4 C 16,1 C 13,4 C 84 % 1008,4 hPa 0,0 l/m 0 min 0 min 233 W/m 9,7 km/h (2 Bft) 100,00 %
10.05.2021 14:58 15,5 C 16,1 C 13,9 C 84 % 1008,3 hPa 0,0 l/m 0 min 0 min 237 W/m 16,1 km/h (3 Bft) 100,00 %
10.05.2021 15:00 15,5 C 16,1 C 13,9 C 84 % 1008,3 hPa 0,0 l/m 0 min 0 min 205 W/m 22,5 km/h (4 Bft) 100,00 %
10.05.2021 15:02 15,6 C 16,7 C 13,9 C 83 % 1008,4 hPa 0,0 l/m 0 min 0 min 185 W/m 3,2 km/h (1 Bft) 100,00 %
10.05.2021 15:04 15,8 C 16,7 C 13,9 C 83 % 1008,4 hPa 0,0 l/m 0 min 0 min 225 W/m 6,4 km/h (2 Bft) 100,00 %
10.05.2021 15:06 15,9 C 16,7 C 14,5 C 82 % 1008,4 hPa 0,0 l/m 0 min 0 min 308 W/m 3,2 km/h (1 Bft) 100,00 %
10.05.2021 15:08 15,9 C 17,2 C 14,5 C 81 % 1008,3 hPa 0,0 l/m 0 min 0 min 294 W/m 19,3 km/h (3 Bft) 100,00 %
10.05.2021 15:10 16,0 C 17,2 C 14,5 C 80 % 1008,1 hPa 0,0 l/m 0 min 0 min 272 W/m 12,9 km/h (3 Bft) 97,87 %
10.05.2021 15:12 16,1 C 17,2 C 14,5 C 80 % 1008,0 hPa 0,0 l/m 0 min 0 min 298 W/m 9,7 km/h (2 Bft) 95,74 %
10.05.2021 15:14 16,2 C 17,8 C 15,0 C 79 % 1008,0 hPa 0,0 l/m 0 min 0 min 337 W/m 6,4 km/h (2 Bft) 97,87 %
10.05.2021 15:16 16,3 C 17,8 C 15,0 C 79 % 1008,0 hPa 0,0 l/m 0 min 0 min 331 W/m 9,7 km/h (2 Bft) 97,87 %
10.05.2021 15:18 16,4 C 18,3 C 15,0 C 78 % 1007,9 hPa 0,0 l/m 2 min 0 min 389 W/m 19,3 km/h (3 Bft) 97,83 %
10.05.2021 15:20 16,6 C 18,3 C 15,6 C 77 % 1008,0 hPa 0,0 l/m 2 min 0 min 424 W/m 16,1 km/h (3 Bft) 97,87 %
10.05.2021 15:22 16,8 C 18,3 C 15,6 C 76 % 1008,1 hPa 0,0 l/m 0 min 0 min 340 W/m 6,4 km/h (2 Bft) 97,87 %
10.05.2021 15:24 16,9 C 18,3 C 15,6 C 75 % 1008,1 hPa 0,0 l/m 0 min 0 min 340 W/m 16,1 km/h (3 Bft) 97,87 %
10.05.2021 15:26 17,0 C 18,3 C 15,6 C 74 % 1008,1 hPa 0,0 l/m 0 min 0 min 336 W/m 16,1 km/h (3 Bft) 95,74 %
10.05.2021 15:28 17,1 C 18,3 C 15,6 C 73 % 1008,1 hPa 0,0 l/m 0 min 0 min 326 W/m 16,1 km/h (3 Bft) 97,87 %
10.05.2021 15:30 17,3 C 18,9 C 15,6 C 73 % 1008,1 hPa 0,0 l/m 0 min 0 min 332 W/m 16,1 km/h (3 Bft) 97,83 %
10.05.2021 15:32 17,4 C 18,9 C 15,6 C 73 % 1008,0 hPa 0,0 l/m 0 min 0 min 357 W/m 6,4 km/h (2 Bft) 97,87 %
10.05.2021 15:34 17,5 C 18,9 C 16,1 C 72 % 1008,0 hPa 0,0 l/m 0 min 0 min 357 W/m 12,9 km/h (3 Bft) 97,87 %
10.05.2021 15:36 17,6 C 18,9 C 16,1 C 71 % 1008,1 hPa 0,0 l/m 0 min 0 min 338 W/m 16,1 km/h (3 Bft) 97,87 %
10.05.2021 15:38 17,8 C 18,9 C 16,1 C 71 % 1008,0 hPa 0,0 l/m 0 min 0 min 353 W/m 9,7 km/h (2 Bft) 97,87 %
10.05.2021 15:40 17,9 C 19,4 C 16,1 C 71 % 1008,0 hPa 0,0 l/m 2 min 0 min 368 W/m 6,4 km/h (2 Bft) 95,74 %
10.05.2021 15:42 18,0 C 19,4 C 16,1 C 70 % 1008,1 hPa 0,0 l/m 2 min 0 min 399 W/m 16,1 km/h (3 Bft) 97,96 %
10.05.2021 15:44 18,1 C 19,4 C 16,1 C 68 % 1008,1 hPa 0,0 l/m 2 min 0 min 388 W/m 22,5 km/h (4 Bft) 97,14 %
10.05.2021 15:46 18,2 C 20,0 C 16,7 C 68 % 1008,1 hPa 0,0 l/m 2 min 0 min 500 W/m 19,3 km/h (3 Bft) 96,43 %
10.05.2021 15:48 18,3 C 20,6 C 16,7 C 67 % 1008,1 hPa 0,0 l/m 2 min 0 min 584 W/m 29,0 km/h (5 Bft) 97,87 %
10.05.2021 15:50 18,4 C 20,6 C 16,7 C 65 % 1008,0 hPa 0,0 l/m 2 min 0 min 622 W/m 22,5 km/h (4 Bft) 97,87 %
10.05.2021 15:52 18,5 C 20,6 C 16,7 C 65 % 1008,1 hPa 0,0 l/m 2 min 0 min 576 W/m 16,1 km/h (3 Bft) 97,87 %
10.05.2021 15:54 18,6 C 21,1 C 16,7 C 65 % 1008,1 hPa 0,0 l/m 2 min 0 min 576 W/m 22,5 km/h (4 Bft) 95,92 %
10.05.2021 15:56 18,8 C 21,1 C 16,7 C 65 % 1008,0 hPa 0,0 l/m 2 min 0 min 606 W/m 25,7 km/h (4 Bft) 97,87 %
10.05.2021 15:58 18,9 C 21,7 C 16,7 C 64 % 1008,2 hPa 0,0 l/m 2 min 0 min 604 W/m 25,7 km/h (4 Bft) 97,87 %
10.05.2021 16:00 19,0 C 21,7 C 16,7 C 64 % 1008,0 hPa 0,0 l/m 2 min 0 min 563 W/m 16,1 km/h (3 Bft) 100,00 %
10.05.2021 16:02 19,1 C 21,1 C 16,7 C 64 % 1008,1 hPa 0,0 l/m 2 min 0 min 436 W/m 16,1 km/h (3 Bft) 96,23 %
10.05.2021 16:04 19,2 C 21,1 C 16,7 C 63 % 1008,1 hPa 0,0 l/m 2 min 0 min 414 W/m 25,7 km/h (4 Bft) 97,96 %
10.05.2021 16:06 19,3 C 21,1 C 16,7 C 63 % 1008,0 hPa 0,0 l/m 2 min 0 min 442 W/m 19,3 km/h (3 Bft) 97,87 %
10.05.2021 16:08 19,3 C 21,1 C 17,3 C 63 % 1008,0 hPa 0,0 l/m 2 min 0 min 454 W/m 22,5 km/h (4 Bft) 97,87 %
10.05.2021 16:10 19,4 C 21,1 C 17,3 C 63 % 1008,0 hPa 0,0 l/m 2 min 0 min 435 W/m 16,1 km/h (3 Bft) 100,00 %
10.05.2021 16:12 19,4 C 20,6 C 17,3 C 63 % 1008,0 hPa 0,0 l/m 2 min 0 min 423 W/m 19,3 km/h (3 Bft) 100,00 %
10.05.2021 16:14 19,5 C 21,1 C 17,3 C 63 % 1007,9 hPa 0,0 l/m 2 min 0 min 408 W/m 12,9 km/h (3 Bft) 100,00 %
10.05.2021 16:16 19,6 C 21,1 C 17,3 C 63 % 1007,9 hPa 0,0 l/m 2 min 0 min 360 W/m 9,7 km/h (2 Bft) 97,96 %
10.05.2021 16:18 19,6 C 21,1 C 17,3 C 63 % 1007,9 hPa 0,0 l/m 2 min 0 min 351 W/m 16,1 km/h (3 Bft) 100,00 %
10.05.2021 16:20 19,8 C 20,6 C 17,3 C 63 % 1008,0 hPa 0,0 l/m 2 min 0 min 331 W/m 22,5 km/h (4 Bft) 100,00 %
10.05.2021 16:22 19,8 C 20,6 C 17,3 C 62 % 1008,1 hPa 0,0 l/m 2 min 0 min 362 W/m 19,3 km/h (3 Bft) 100,00 %
10.05.2021 16:24 19,8 C 20,6 C 17,3 C 63 % 1008,1 hPa 0,0 l/m 2 min 0 min 381 W/m 25,7 km/h (4 Bft) 97,96 %
10.05.2021 16:26 19,8 C 20,6 C 17,3 C 62 % 1008,1 hPa 0,0 l/m 2 min 0 min 376 W/m 22,5 km/h (4 Bft) 97,14 %
10.05.2021 16:28 19,8 C 20,6 C 17,3 C 63 % 1008,1 hPa 0,0 l/m 2 min 0 min 391 W/m 25,7 km/h (4 Bft) 100,00 %
10.05.2021 16:30 19,8 C 20,6 C 17,3 C 63 % 1008,1 hPa 0,0 l/m 2 min 0 min 429 W/m 12,9 km/h (3 Bft) 100,00 %
10.05.2021 16:32 19,9 C 21,1 C 17,3 C 62 % 1008,1 hPa 0,0 l/m 2 min 0 min 445 W/m 32,2 km/h (5 Bft) 98,00 %
10.05.2021 16:34 19,9 C 21,1 C 17,3 C 62 % 1008,1 hPa 0,0 l/m 2 min 0 min 468 W/m 32,2 km/h (5 Bft) 95,74 %
10.05.2021 16:36 19,9 C 21,1 C 17,3 C 62 % 1008,1 hPa 0,0 l/m 2 min 0 min 441 W/m 22,5 km/h (4 Bft) 95,74 %
10.05.2021 16:38 19,9 C 20,6 C 17,3 C 63 % 1008,0 hPa 0,0 l/m 2 min 0 min 377 W/m 22,5 km/h (4 Bft) 97,87 %
10.05.2021 16:40 20,0 C 21,1 C 17,3 C 63 % 1008,1 hPa 0,0 l/m 2 min 0 min 372 W/m 22,5 km/h (4 Bft) 97,83 %
10.05.2021 16:42 19,9 C 20,6 C 17,3 C 62 % 1008,1 hPa 0,0 l/m 2 min 0 min 356 W/m 29,0 km/h (5 Bft) 95,74 %
10.05.2021 16:44 19,9 C 20,6 C 17,3 C 63 % 1008,1 hPa 0,0 l/m 2 min 0 min 347 W/m 19,3 km/h (3 Bft) 95,74 %
10.05.2021 16:46 19,9 C 20,0 C 17,3 C 62 % 1008,0 hPa 0,0 l/m 2 min 0 min 338 W/m 32,2 km/h (5 Bft) 97,96 %
10.05.2021 16:48 19,8 C 20,0 C 17,3 C 62 % 1008,0 hPa 0,0 l/m 2 min 0 min 317 W/m 29,0 km/h (5 Bft) 95,74 %
10.05.2021 16:50 19,7 C 20,0 C 16,7 C 63 % 1008,1 hPa 0,0 l/m 0 min 0 min 289 W/m 22,5 km/h (4 Bft) 97,87 %
10.05.2021 16:52 19,6 C 20,0 C 16,7 C 63 % 1008,1 hPa 0,0 l/m 0 min 0 min 268 W/m 22,5 km/h (4 Bft) 95,74 %
10.05.2021 16:54 19,6 C 20,0 C 17,3 C 63 % 1008,2 hPa 0,0 l/m 0 min 0 min 263 W/m 12,9 km/h (3 Bft) 95,74 %
10.05.2021 16:56 19,6 C 19,4 C 16,7 C 63 % 1008,1 hPa 0,0 l/m 0 min 0 min 234 W/m 25,7 km/h (4 Bft) 94,29 %
10.05.2021 16:58 19,6 C 19,4 C 16,7 C 63 % 1008,1 hPa 0,0 l/m 0 min 0 min 199 W/m 25,7 km/h (4 Bft) 95,74 %
10.05.2021 17:00 19,6 C 19,4 C 16,7 C 63 % 1008,0 hPa 0,0 l/m 0 min 0 min 211 W/m 22,5 km/h (4 Bft) 94,34 %
10.05.2021 17:02 19,5 C 19,4 C 16,7 C 64 % 1008,0 hPa 0,0 l/m 0 min 0 min 229 W/m 19,3 km/h (3 Bft) 95,74 %
10.05.2021 17:04 19,5 C 19,4 C 16,7 C 64 % 1008,0 hPa 0,0 l/m 0 min 0 min 248 W/m 16,1 km/h (3 Bft) 93,88 %
10.05.2021 17:06 19,5 C 19,4 C 16,7 C 64 % 1008,0 hPa 0,0 l/m 0 min 0 min 251 W/m 22,5 km/h (4 Bft) 93,62 %
10.05.2021 17:08 19,5 C 19,4 C 16,7 C 64 % 1007,9 hPa 0,0 l/m 0 min 0 min 247 W/m 12,9 km/h (3 Bft) 95,74 %
10.05.2021 17:10 19,5 C 19,4 C 16,7 C 64 % 1007,9 hPa 0,0 l/m 0 min 0 min 241 W/m 22,5 km/h (4 Bft) 95,74 %
10.05.2021 17:12 19,5 C 19,4 C 16,7 C 64 % 1007,9 hPa 0,0 l/m 0 min 0 min 234 W/m 22,5 km/h (4 Bft) 93,62 %
10.05.2021 17:14 19,5 C 19,4 C 16,7 C 64 % 1007,9 hPa 0,0 l/m 0 min 0 min 230 W/m 16,1 km/h (3 Bft) 95,65 %
10.05.2021 17:16 19,4 C 19,4 C 16,7 C 64 % 1007,9 hPa 0,0 l/m 0 min 0 min 229 W/m 19,3 km/h (3 Bft) 95,74 %
10.05.2021 17:18 19,4 C 19,4 C 16,7 C 65 % 1008,0 hPa 0,0 l/m 0 min 0 min 225 W/m 16,1 km/h (3 Bft) 97,87 %
10.05.2021 17:20 19,4 C 19,4 C 16,7 C 65 % 1007,9 hPa 0,0 l/m 0 min 0 min 221 W/m 6,4 km/h (2 Bft) 98,00 %
10.05.2021 17:22 19,4 C 19,4 C 16,7 C 65 % 1007,9 hPa 0,0 l/m 0 min 0 min 222 W/m 9,7 km/h (2 Bft) 95,65 %
10.05.2021 17:24 19,5 C 19,4 C 16,7 C 65 % 1008,0 hPa 0,0 l/m 0 min 0 min 220 W/m 19,3 km/h (3 Bft) 97,87 %
10.05.2021 17:26 19,5 C 19,4 C 16,7 C 65 % 1007,9 hPa 0,0 l/m 0 min 0 min 212 W/m 12,9 km/h (3 Bft) 97,14 %
10.05.2021 17:28 19,5 C 19,4 C 16,7 C 64 % 1007,9 hPa 0,0 l/m 0 min 0 min 207 W/m 12,9 km/h (3 Bft) 97,87 %
10.05.2021 17:30 19,5 C 19,4 C 16,7 C 64 % 1007,9 hPa 0,0 l/m 0 min 0 min 208 W/m 16,1 km/h (3 Bft) 98,11 %
10.05.2021 17:32 19,5 C 19,4 C 16,7 C 64 % 1008,0 hPa 0,0 l/m 0 min 0 min 211 W/m 12,9 km/h (3 Bft) 97,87 %
10.05.2021 17:34 19,5 C 19,4 C 16,7 C 65 % 1008,1 hPa 0,0 l/m 0 min 0 min 213 W/m 16,1 km/h (3 Bft) 98,00 %
10.05.2021 17:36 19,5 C 19,4 C 16,7 C 65 % 1008,0 hPa 0,0 l/m 0 min 0 min 210 W/m 19,3 km/h (3 Bft) 97,96 %
10.05.2021 17:38 19,4 C 19,4 C 16,7 C 65 % 1008,0 hPa 0,0 l/m 0 min 0 min 209 W/m 16,1 km/h (3 Bft) 97,87 %
10.05.2021 17:40 19,4 C 19,4 C 16,7 C 65 % 1008,1 hPa 0,0 l/m 0 min 0 min 207 W/m 12,9 km/h (3 Bft) 97,87 %
10.05.2021 17:42 19,4 C 19,4 C 16,7 C 65 % 1008,0 hPa 0,0 l/m 0 min 0 min 204 W/m 16,1 km/h (3 Bft) 94,29 %
10.05.2021 17:44 19,4 C 19,4 C 16,7 C 65 % 1008,0 hPa 0,0 l/m 0 min 0 min 202 W/m 16,1 km/h (3 Bft) 97,87 %
10.05.2021 17:46 19,4 C 19,4 C 16,7 C 64 % 1008,0 hPa 0,0 l/m 0 min 0 min 204 W/m 16,1 km/h (3 Bft) 98,11 %
10.05.2021 17:48 19,4 C 19,4 C 16,7 C 65 % 1008,0 hPa 0,0 l/m 0 min 0 min 202 W/m 16,1 km/h (3 Bft) 96,00 %
10.05.2021 17:50 19,4 C 19,4 C 16,7 C 64 % 1008,1 hPa 0,0 l/m 0 min 0 min 202 W/m 19,3 km/h (3 Bft) 100,00 %
10.05.2021 17:52 19,4 C 19,4 C 16,7 C 65 % 1008,0 hPa 0,0 l/m 0 min 0 min 201 W/m 12,9 km/h (3 Bft) 100,00 %
10.05.2021 17:54 19,4 C 19,4 C 16,7 C 65 % 1008,0 hPa 0,0 l/m 0 min 0 min 198 W/m 16,1 km/h (3 Bft) 100,00 %
10.05.2021 17:56 19,4 C 19,4 C 16,7 C 64 % 1008,0 hPa 0,0 l/m 0 min 0 min 193 W/m 9,7 km/h (2 Bft) 100,00 %
10.05.2021 17:58 19,4 C 19,4 C 16,1 C 65 % 1008,0 hPa 0,0 l/m 0 min 0 min 190 W/m 12,9 km/h (3 Bft) 100,00 %
10.05.2021 18:00 19,4 C 19,4 C 16,7 C 65 % 1008,0 hPa 0,0 l/m 0 min 0 min 185 W/m 12,9 km/h (3 Bft) 100,00 %
10.05.2021 18:02 19,4 C 19,4 C 16,7 C 64 % 1008,0 hPa 0,0 l/m 0 min 0 min 183 W/m 19,3 km/h (3 Bft) 100,00 %
10.05.2021 18:04 19,4 C 19,4 C 16,1 C 64 % 1007,9 hPa 0,0 l/m 0 min 0 min 184 W/m 12,9 km/h (3 Bft) 100,00 %
10.05.2021 18:08 19,4 C 18,9 C 16,1 C 63 % 1007,9 hPa 0,0 l/m 0 min 0 min 181 W/m 19,3 km/h (3 Bft) 100,00 %
10.05.2021 18:10 19,4 C 18,9 C 16,1 C 64 % 1007,8 hPa 0,0 l/m 0 min 0 min 179 W/m 19,3 km/h (3 Bft) 100,00 %
10.05.2021 18:12 19,4 C 18,9 C 16,1 C 64 % 1007,8 hPa 0,0 l/m 0 min 0 min 181 W/m 12,9 km/h (3 Bft) 100,00 %
10.05.2021 18:14 19,4 C 19,4 C 16,1 C 64 % 1007,8 hPa 0,0 l/m 0 min 0 min 181 W/m 12,9 km/h (3 Bft) 100,00 %
10.05.2021 18:16 19,4 C 19,4 C 16,7 C 64 % 1007,8 hPa 0,0 l/m 0 min 0 min 177 W/m 12,9 km/h (3 Bft) 100,00 %
10.05.2021 18:18 19,4 C 18,9 C 16,1 C 63 % 1007,7 hPa 0,0 l/m 0 min 0 min 173 W/m 22,5 km/h (4 Bft) 100,00 %
10.05.2021 18:20 19,4 C 18,9 C 16,1 C 63 % 1007,7 hPa 0,0 l/m 0 min 0 min 172 W/m 16,1 km/h (3 Bft) 100,00 %
10.05.2021 18:22 19,4 C 18,9 C 16,1 C 63 % 1007,7 hPa 0,0 l/m 0 min 0 min 169 W/m 19,3 km/h (3 Bft) 100,00 %
10.05.2021 18:24 19,4 C 18,9 C 16,1 C 63 % 1007,7 hPa 0,0 l/m 0 min 0 min 168 W/m 16,1 km/h (3 Bft) 98,15 %
10.05.2021 18:26 19,4 C 18,9 C 16,1 C 63 % 1007,7 hPa 0,0 l/m 0 min 0 min 166 W/m 12,9 km/h (3 Bft) 97,83 %
10.05.2021 18:28 19,4 C 18,9 C 16,1 C 63 % 1007,7 hPa 0,0 l/m 0 min 0 min 167 W/m 16,1 km/h (3 Bft) 97,87 %
10.05.2021 18:30 19,4 C 18,9 C 16,1 C 63 % 1007,7 hPa 0,0 l/m 0 min 0 min 168 W/m 12,9 km/h (3 Bft) 98,00 %
10.05.2021 18:32 19,5 C 19,4 C 16,1 C 63 % 1007,6 hPa 0,0 l/m 0 min 0 min 169 W/m 12,9 km/h (3 Bft) 100,00 %
10.05.2021 18:34 19,5 C 19,4 C 16,7 C 63 % 1007,7 hPa 0,0 l/m 0 min 0 min 167 W/m 16,1 km/h (3 Bft) 97,14 %
10.05.2021 18:36 19,5 C 19,4 C 16,7 C 63 % 1007,7 hPa 0,0 l/m 0 min 0 min 173 W/m 19,3 km/h (3 Bft) 93,62 %
10.05.2021 18:38 19,5 C 19,4 C 16,7 C 62 % 1007,7 hPa 0,0 l/m 2 min 0 min 188 W/m 16,1 km/h (3 Bft) 97,87 %
10.05.2021 18:40 19,5 C 19,4 C 16,7 C 62 % 1007,7 hPa 0,0 l/m 2 min 0 min 199 W/m 6,4 km/h (2 Bft) 97,87 %
10.05.2021 18:42 19,5 C 20,0 C 16,7 C 62 % 1007,6 hPa 0,0 l/m 2 min 0 min 197 W/m 12,9 km/h (3 Bft) 97,87 %
10.05.2021 18:44 19,6 C 20,0 C 16,7 C 62 % 1007,6 hPa 0,0 l/m 2 min 0 min 192 W/m 16,1 km/h (3 Bft) 97,87 %
10.05.2021 18:46 19,6 C 20,0 C 16,7 C 62 % 1007,6 hPa 0,0 l/m 2 min 0 min 184 W/m 22,5 km/h (4 Bft) 93,48 %
10.05.2021 18:48 19,6 C 20,0 C 16,7 C 62 % 1007,6 hPa 0,0 l/m 2 min 0 min 174 W/m 12,9 km/h (3 Bft) 97,87 %
10.05.2021 18:50 19,6 C 20,0 C 16,7 C 61 % 1007,6 hPa 0,0 l/m 2 min 0 min 173 W/m 9,7 km/h (2 Bft) 98,11 %
10.05.2021 18:52 19,6 C 20,0 C 16,7 C 61 % 1007,6 hPa 0,0 l/m 2 min 0 min 174 W/m 12,9 km/h (3 Bft) 98,00 %
10.05.2021 18:54 19,7 C 19,4 C 16,7 C 60 % 1007,6 hPa 0,0 l/m 2 min 0 min 172 W/m 16,1 km/h (3 Bft) 97,96 %
10.05.2021 18:56 19,7 C 19,4 C 16,7 C 60 % 1007,6 hPa 0,0 l/m 2 min 0 min 161 W/m 12,9 km/h (3 Bft) 97,87 %
10.05.2021 18:58 19,7 C 19,4 C 16,7 C 61 % 1007,7 hPa 0,0 l/m 2 min 0 min 158 W/m 9,7 km/h (2 Bft) 100,00 %
10.05.2021 19:00 19,7 C 19,4 C 16,7 C 61 % 1007,6 hPa 0,0 l/m 2 min 0 min 162 W/m 9,7 km/h (2 Bft) 97,14 %
10.05.2021 19:02 19,8 C 19,4 C 16,7 C 61 % 1007,6 hPa 0,0 l/m 2 min 0 min 162 W/m 9,7 km/h (2 Bft) 97,87 %
10.05.2021 19:04 19,8 C 19,4 C 16,7 C 61 % 1007,6 hPa 0,0 l/m 2 min 0 min 160 W/m 16,1 km/h (3 Bft) 97,87 %
10.05.2021 19:06 19,8 C 19,4 C 16,7 C 61 % 1007,6 hPa 0,0 l/m 2 min 0 min 150 W/m 12,9 km/h (3 Bft) 97,87 %
10.05.2021 19:08 19,8 C 19,4 C 16,1 C 61 % 1007,7 hPa 0,0 l/m 0 min 0 min 138 W/m 6,4 km/h (2 Bft) 97,87 %
10.05.2021 19:10 19,8 C 19,4 C 16,1 C 61 % 1007,7 hPa 0,0 l/m 0 min 0 min 124 W/m 9,7 km/h (2 Bft) 95,65 %
10.05.2021 19:12 19,8 C 19,4 C 16,1 C 61 % 1007,7 hPa 0,0 l/m 0 min 0 min 116 W/m 6,4 km/h (2 Bft) 94,34 %
10.05.2021 19:14 19,8 C 18,9 C 16,1 C 62 % 1007,7 hPa 0,0 l/m 0 min 0 min 114 W/m 9,7 km/h (2 Bft) 95,74 %
10.05.2021 19:16 19,8 C 19,4 C 16,1 C 62 % 1007,7 hPa 0,0 l/m 0 min 0 min 113 W/m 6,4 km/h (2 Bft) 95,74 %
10.05.2021 19:18 19,8 C 18,9 C 16,1 C 62 % 1007,8 hPa 0,0 l/m 0 min 0 min 113 W/m 6,4 km/h (2 Bft) 95,74 %
10.05.2021 19:20 19,7 C 18,9 C 16,1 C 62 % 1007,8 hPa 0,0 l/m 0 min 0 min 111 W/m 9,7 km/h (2 Bft) 96,00 %
10.05.2021 19:22 19,7 C 18,9 C 16,1 C 61 % 1007,9 hPa 0,0 l/m 0 min 0 min 108 W/m 12,9 km/h (3 Bft) 97,96 %
10.05.2021 19:24 19,7 C 18,9 C 16,1 C 62 % 1007,9 hPa 0,0 l/m 0 min 0 min 105 W/m 6,4 km/h (2 Bft) 97,14 %
10.05.2021 19:26 19,7 C 18,9 C 16,1 C 62 % 1007,9 hPa 0,0 l/m 0 min 0 min 104 W/m 6,4 km/h (2 Bft) 97,87 %
10.05.2021 19:28 19,6 C 18,9 C 16,1 C 62 % 1007,9 hPa 0,0 l/m 0 min 0 min 102 W/m 9,7 km/h (2 Bft) 96,23 %
10.05.2021 19:30 19,6 C 18,9 C 16,1 C 62 % 1008,0 hPa 0,0 l/m 0 min 0 min 100 W/m 6,4 km/h (2 Bft) 98,00 %
10.05.2021 19:32 19,6 C 18,9 C 16,1 C 62 % 1007,9 hPa 0,0 l/m 0 min 0 min 97 W/m 6,4 km/h (2 Bft) 95,74 %
10.05.2021 19:34 19,6 C 18,9 C 16,1 C 62 % 1007,9 hPa 0,0 l/m 0 min 0 min 94 W/m 12,9 km/h (3 Bft) 97,96 %
10.05.2021 19:36 19,6 C 18,9 C 16,1 C 62 % 1008,0 hPa 0,0 l/m 0 min 0 min 91 W/m 6,4 km/h (2 Bft) 97,87 %
10.05.2021 19:38 19,5 C 18,9 C 16,1 C 62 % 1008,0 hPa 0,0 l/m 0 min 0 min 88 W/m 6,4 km/h (2 Bft) 93,62 %
10.05.2021 19:40 19,5 C 18,9 C 15,6 C 62 % 1007,9 hPa 0,0 l/m 0 min 0 min 85 W/m 6,4 km/h (2 Bft) 97,87 %
10.05.2021 19:42 19,5 C 18,9 C 15,6 C 62 % 1007,9 hPa 0,0 l/m 0 min 0 min 83 W/m 6,4 km/h (2 Bft) 95,65 %
10.05.2021 19:44 19,5 C 18,9 C 15,6 C 63 % 1007,9 hPa 0,0 l/m 0 min 0 min 79 W/m 6,4 km/h (2 Bft) 100,00 %
10.05.2021 19:46 19,5 C 18,9 C 15,6 C 63 % 1008,0 hPa 0,0 l/m 0 min 0 min 76 W/m 6,4 km/h (2 Bft) 96,23 %
10.05.2021 19:48 19,5 C 18,3 C 15,6 C 63 % 1008,0 hPa 0,0 l/m 0 min 0 min 74 W/m 9,7 km/h (2 Bft) 96,00 %
10.05.2021 19:50 19,5 C 18,3 C 15,6 C 63 % 1008,0 hPa 0,0 l/m 0 min 0 min 71 W/m 12,9 km/h (3 Bft) 96,00 %
10.05.2021 19:52 19,4 C 18,3 C 15,6 C 64 % 1008,0 hPa 0,0 l/m 0 min 0 min 69 W/m 6,4 km/h (2 Bft) 95,65 %
10.05.2021 19:54 19,4 C 18,3 C 15,6 C 64 % 1008,0 hPa 0,0 l/m 0 min 0 min 69 W/m 6,4 km/h (2 Bft) 100,00 %
10.05.2021 19:56 19,4 C 18,3 C 15,6 C 65 % 1008,1 hPa 0,0 l/m 0 min 0 min 67 W/m 3,2 km/h (1 Bft) 100,00 %
10.05.2021 19:58 19,4 C 18,3 C 15,6 C 65 % 1008,1 hPa 0,0 l/m 0 min 0 min 64 W/m 6,4 km/h (2 Bft) 97,96 %
10.05.2021 20:00 19,4 C 18,3 C 15,6 C 65 % 1008,1 hPa 0,0 l/m 0 min 0 min 60 W/m 3,2 km/h (1 Bft) 97,87 %
10.05.2021 20:02 19,4 C 18,3 C 15,6 C 65 % 1008,1 hPa 0,0 l/m 0 min 0 min 56 W/m 3,2 km/h (1 Bft) 96,00 %
10.05.2021 20:04 19,4 C 18,3 C 15,6 C 66 % 1008,1 hPa 0,0 l/m 0 min 0 min 53 W/m 3,2 km/h (1 Bft) 97,83 %
10.05.2021 20:06 19,3 C 18,3 C 15,6 C 66 % 1008,1 hPa 0,0 l/m 0 min 0 min 50 W/m 3,2 km/h (1 Bft) 100,00 %
10.05.2021 20:08 19,3 C 18,3 C 15,6 C 67 % 1008,1 hPa 0,0 l/m 0 min 0 min 47 W/m 3,2 km/h (1 Bft) 97,83 %
10.05.2021 20:10 19,3 C 17,8 C 15,0 C 67 % 1008,1 hPa 0,0 l/m 0 min 0 min 46 W/m 3,2 km/h (1 Bft) 93,62 %
10.05.2021 20:12 19,2 C 17,8 C 15,0 C 67 % 1008,0 hPa 0,0 l/m 0 min 0 min 45 W/m 3,2 km/h (1 Bft) 97,87 %
10.05.2021 20:14 19,1 C 17,8 C 15,0 C 67 % 1008,0 hPa 0,0 l/m 0 min 0 min 42 W/m 3,2 km/h (1 Bft) 97,87 %
10.05.2021 20:16 19,1 C 17,8 C 15,0 C 68 % 1008,0 hPa 0,0 l/m 0 min 0 min 39 W/m 3,2 km/h (1 Bft) 97,87 %
10.05.2021 20:18 19,1 C 17,8 C 15,0 C 68 % 1008,1 hPa 0,0 l/m 0 min 0 min 38 W/m 6,4 km/h (2 Bft) 97,87 %
10.05.2021 20:20 19,0 C 17,8 C 15,0 C 68 % 1008,1 hPa 0,0 l/m 0 min 0 min 34 W/m 6,4 km/h (2 Bft) 97,83 %
10.05.2021 20:22 19,0 C 17,8 C 15,0 C 68 % 1008,1 hPa 0,0 l/m 0 min 0 min 32 W/m 6,4 km/h (2 Bft) 95,74 %
10.05.2021 20:24 18,9 C 17,8 C 15,0 C 68 % 1008,1 hPa 0,0 l/m 0 min 0 min 29 W/m 6,4 km/h (2 Bft) 98,11 %
10.05.2021 20:26 18,9 C 17,8 C 15,0 C 68 % 1008,1 hPa 0,0 l/m 0 min 0 min 27 W/m 6,4 km/h (2 Bft) 95,74 %
10.05.2021 20:28 18,8 C 17,8 C 15,0 C 68 % 1008,1 hPa 0,0 l/m 0 min 0 min 26 W/m 12,9 km/h (3 Bft) 98,00 %
10.05.2021 20:30 18,8 C 17,2 C 15,0 C 68 % 1008,1 hPa 0,0 l/m 0 min 0 min 25 W/m 6,4 km/h (2 Bft) 97,96 %
10.05.2021 20:32 18,7 C 17,2 C 15,0 C 69 % 1008,1 hPa 0,0 l/m 0 min 0 min 23 W/m 9,7 km/h (2 Bft) 97,14 %
10.05.2021 20:34 18,6 C 17,2 C 15,0 C 69 % 1008,1 hPa 0,0 l/m 0 min 0 min 21 W/m 12,9 km/h (3 Bft) 98,11 %
10.05.2021 20:36 18,6 C 17,2 C 15,0 C 69 % 1008,1 hPa 0,0 l/m 0 min 0 min 19 W/m 12,9 km/h (3 Bft) 95,74 %
10.05.2021 20:38 18,5 C 17,2 C 15,0 C 70 % 1008,1 hPa 0,0 l/m 0 min 0 min 18 W/m 16,1 km/h (3 Bft) 97,87 %
10.05.2021 20:40 18,5 C 17,2 C 14,5 C 70 % 1008,2 hPa 0,0 l/m 0 min 0 min 16 W/m 12,9 km/h (3 Bft) 97,87 %
10.05.2021 20:42 18,4 C 17,2 C 14,5 C 70 % 1008,2 hPa 0,0 l/m 0 min 0 min 14 W/m 12,9 km/h (3 Bft) 98,00 %
10.05.2021 20:44 18,4 C 17,2 C 14,5 C 70 % 1008,2 hPa 0,0 l/m 0 min 0 min 14 W/m 6,4 km/h (2 Bft) 97,83 %
10.05.2021 20:46 18,4 C 17,2 C 14,5 C 70 % 1008,2 hPa 0,0 l/m 0 min 0 min 14 W/m 9,7 km/h (2 Bft) 98,00 %
10.05.2021 20:48 18,3 C 17,2 C 14,5 C 70 % 1008,2 hPa 0,0 l/m 0 min 0 min 12 W/m 12,9 km/h (3 Bft) 100,00 %
10.05.2021 20:50 18,3 C 17,2 C 14,5 C 70 % 1008,2 hPa 0,0 l/m 0 min 0 min 12 W/m 12,9 km/h (3 Bft) 100,00 %
10.05.2021 20:52 18,2 C 17,2 C 14,5 C 70 % 1008,2 hPa 0,0 l/m 0 min 0 min 11 W/m 12,9 km/h (3 Bft) 100,00 %
10.05.2021 20:54 18,2 C 17,2 C 14,5 C 71 % 1008,2 hPa 0,0 l/m 0 min 0 min 8 W/m 6,4 km/h (2 Bft) 100,00 %
10.05.2021 20:56 18,1 C 17,2 C 14,5 C 71 % 1008,2 hPa 0,0 l/m 0 min 0 min 7 W/m 6,4 km/h (2 Bft) 100,00 %
10.05.2021 20:58 18,1 C 16,7 C 14,5 C 71 % 1008,2 hPa 0,0 l/m 0 min 0 min 5 W/m 9,7 km/h (2 Bft) 100,00 %
10.05.2021 21:00 18,0 C 16,7 C 14,5 C 71 % 1008,2 hPa 0,0 l/m 0 min 0 min 3 W/m 16,1 km/h (3 Bft) 100,00 %
10.05.2021 21:02 18,0 C 16,7 C 14,5 C 71 % 1008,2 hPa 0,0 l/m 0 min 0 min 0 W/m 6,4 km/h (2 Bft) 100,00 %
10.05.2021 21:04 18,0 C 16,7 C 14,5 C 71 % 1008,1 hPa 0,0 l/m 0 min 0 min 0 W/m 9,7 km/h (2 Bft) 100,00 %
10.05.2021 21:06 17,9 C 16,7 C 14,5 C 71 % 1008,1 hPa 0,0 l/m 0 min 0 min 0 W/m 12,9 km/h (3 Bft) 100,00 %
10.05.2021 21:08 17,9 C 16,7 C 14,5 C 71 % 1008,0 hPa 0,0 l/m 0 min 0 min 0 W/m 6,4 km/h (2 Bft) 100,00 %
10.05.2021 21:10 17,9 C 16,7 C 14,5 C 71 % 1008,1 hPa 0,0 l/m 0 min 0 min 0 W/m 12,9 km/h (3 Bft) 100,00 %
10.05.2021 21:12 17,9 C 16,7 C 14,5 C 71 % 1008,1 hPa 0,0 l/m 0 min 0 min 0 W/m 12,9 km/h (3 Bft) 100,00 %
10.05.2021 21:14 17,8 C 16,7 C 14,5 C 71 % 1008,1 hPa 0,0 l/m 0 min 0 min 0 W/m 12,9 km/h (3 Bft) 100,00 %
10.05.2021 21:16 17,8 C 16,7 C 13,9 C 71 % 1008,1 hPa 0,0 l/m 0 min 0 min 0 W/m 6,4 km/h (2 Bft) 100,00 %
10.05.2021 21:18 17,8 C 16,7 C 13,9 C 71 % 1008,1 hPa 0,0 l/m 0 min 0 min 0 W/m 9,7 km/h (2 Bft) 100,00 %
10.05.2021 21:20 17,8 C 16,7 C 13,9 C 71 % 1008,1 hPa 0,0 l/m 0 min 0 min 0 W/m 6,4 km/h (2 Bft) 97,87 %
10.05.2021 21:22 17,7 C 16,7 C 13,9 C 71 % 1008,1 hPa 0,0 l/m 0 min 0 min 0 W/m 9,7 km/h (2 Bft) 100,00 %
10.05.2021 21:24 17,6 C 16,7 C 13,9 C 71 % 1008,1 hPa 0,0 l/m 0 min 0 min 0 W/m 6,4 km/h (2 Bft) 100,00 %
10.05.2021 21:26 17,6 C 16,7 C 13,9 C 72 % 1008,1 hPa 0,0 l/m 0 min 0 min 0 W/m 16,1 km/h (3 Bft) 100,00 %
10.05.2021 21:28 17,6 C 16,7 C 13,9 C 72 % 1008,1 hPa 0,0 l/m 0 min 0 min 0 W/m 12,9 km/h (3 Bft) 100,00 %
10.05.2021 21:30 17,6 C 16,7 C 13,9 C 72 % 1008,2 hPa 0,0 l/m 0 min 0 min 0 W/m 12,9 km/h (3 Bft) 100,00 %
10.05.2021 21:32 17,5 C 16,7 C 13,9 C 72 % 1008,2 hPa 0,0 l/m 0 min 0 min 0 W/m 16,1 km/h (3 Bft) 100,00 %
10.05.2021 21:34 17,5 C 16,7 C 13,9 C 72 % 1008,2 hPa 0,0 l/m 0 min 0 min 0 W/m 6,4 km/h (2 Bft) 100,00 %
10.05.2021 21:36 17,5 C 16,7 C 13,9 C 72 % 1008,2 hPa 0,0 l/m 0 min 0 min 0 W/m 3,2 km/h (1 Bft) 97,87 %
10.05.2021 21:38 17,5 C 16,7 C 13,9 C 72 % 1008,3 hPa 0,0 l/m 0 min 0 min 0 W/m 6,4 km/h (2 Bft) 95,65 %
10.05.2021 21:40 17,4 C 16,1 C 13,9 C 72 % 1008,3 hPa 0,0 l/m 0 min 0 min 0 W/m 3,2 km/h (1 Bft) 100,00 %
10.05.2021 21:42 17,4 C 16,1 C 13,9 C 72 % 1008,3 hPa 0,0 l/m 0 min 0 min 0 W/m 6,4 km/h (2 Bft) 100,00 %
10.05.2021 21:44 17,4 C 16,1 C 13,9 C 72 % 1008,4 hPa 0,0 l/m 0 min 0 min 0 W/m 3,2 km/h (1 Bft) 100,00 %
10.05.2021 21:46 17,4 C 16,1 C 13,9 C 72 % 1008,4 hPa 0,0 l/m 0 min 0 min 0 W/m 12,9 km/h (3 Bft) 100,00 %
10.05.2021 21:48 17,4 C 16,1 C 13,9 C 72 % 1008,4 hPa 0,0 l/m 0 min 0 min 0 W/m 6,4 km/h (2 Bft) 100,00 %
10.05.2021 21:50 17,3 C 16,1 C 13,9 C 72 % 1008,4 hPa 0,0 l/m 0 min 0 min 0 W/m 6,4 km/h (2 Bft) 100,00 %
10.05.2021 21:52 17,3 C 16,1 C 13,9 C 72 % 1008,4 hPa 0,0 l/m 0 min 0 min 0 W/m 6,4 km/h (2 Bft) 95,74 %
10.05.2021 21:54 17,3 C 16,1 C 13,4 C 73 % 1008,4 hPa 0,0 l/m 0 min 0 min 0 W/m 6,4 km/h (2 Bft) 97,87 %
10.05.2021 21:56 17,3 C 16,1 C 13,4 C 73 % 1008,4 hPa 0,0 l/m 0 min 0 min 0 W/m 6,4 km/h (2 Bft) 95,74 %
10.05.2021 21:58 17,2 C 16,1 C 13,4 C 73 % 1008,4 hPa 0,0 l/m 0 min 0 min 0 W/m 12,9 km/h (3 Bft) 95,74 %
10.05.2021 22:00 17,2 C 16,1 C 13,4 C 73 % 1008,4 hPa 0,0 l/m 0 min 0 min 0 W/m 12,9 km/h (3 Bft) 95,65 %
10.05.2021 22:02 17,1 C 16,1 C 13,4 C 73 % 1008,5 hPa 0,0 l/m 0 min 0 min 0 W/m 12,9 km/h (3 Bft) 93,62 %
10.05.2021 22:04 17,1 C 16,1 C 13,4 C 73 % 1008,5 hPa 0,0 l/m 0 min 0 min 0 W/m 6,4 km/h (2 Bft) 93,62 %
10.05.2021 22:06 17,1 C 16,1 C 13,4 C 73 % 1008,4 hPa 0,0 l/m 0 min 0 min 0 W/m 16,1 km/h (3 Bft) 93,62 %
10.05.2021 22:08 17,1 C 16,1 C 13,4 C 73 % 1008,5 hPa 0,0 l/m 0 min 0 min 0 W/m 12,9 km/h (3 Bft) 95,74 %
10.05.2021 22:10 17,0 C 16,1 C 13,4 C 73 % 1008,4 hPa 0,0 l/m 0 min 0 min 0 W/m 9,7 km/h (2 Bft) 95,74 %
10.05.2021 22:12 17,0 C 16,1 C 13,4 C 73 % 1008,5 hPa 0,0 l/m 0 min 0 min 0 W/m 6,4 km/h (2 Bft) 95,65 %
10.05.2021 22:14 17,0 C 16,1 C 13,4 C 73 % 1008,4 hPa 0,0 l/m 0 min 0 min 0 W/m 6,4 km/h (2 Bft) 95,74 %
10.05.2021 22:16 17,0 C 16,1 C 13,4 C 73 % 1008,4 hPa 0,0 l/m 0 min 0 min 0 W/m 12,9 km/h (3 Bft) 95,74 %
10.05.2021 22:18 16,9 C 16,1 C 13,4 C 73 % 1008,4 hPa 0,0 l/m 0 min 0 min 0 W/m 9,7 km/h (2 Bft) 93,62 %
10.05.2021 22:20 16,9 C 16,1 C 13,4 C 73 % 1008,4 hPa 0,0 l/m 0 min 0 min 0 W/m 6,4 km/h (2 Bft) 95,74 %
10.05.2021 22:22 16,9 C 16,1 C 13,4 C 73 % 1008,4 hPa 0,0 l/m 0 min 0 min 0 W/m 6,4 km/h (2 Bft) 95,74 %
10.05.2021 22:24 16,9 C 16,1 C 13,4 C 74 % 1008,4 hPa 0,0 l/m 0 min 0 min 0 W/m 6,4 km/h (2 Bft) 95,74 %
10.05.2021 22:26 16,9 C 15,6 C 13,4 C 73 % 1008,4 hPa 0,0 l/m 0 min 0 min 0 W/m 6,4 km/h (2 Bft) 97,83 %
10.05.2021 22:28 16,9 C 15,6 C 13,4 C 74 % 1008,4 hPa 0,0 l/m 0 min 0 min 0 W/m 9,7 km/h (2 Bft) 95,74 %
10.05.2021 22:30 16,8 C 15,6 C 13,4 C 74 % 1008,4 hPa 0,0 l/m 0 min 0 min 0 W/m 3,2 km/h (1 Bft) 95,74 %
10.05.2021 22:32 16,8 C 15,6 C 13,4 C 74 % 1008,4 hPa 0,0 l/m 0 min 0 min 0 W/m 6,4 km/h (2 Bft) 95,74 %
10.05.2021 22:34 16,8 C 15,6 C 13,4 C 74 % 1008,5 hPa 0,0 l/m 0 min 0 min 0 W/m 6,4 km/h (2 Bft) 91,49 %
10.05.2021 22:36 16,8 C 15,6 C 13,4 C 74 % 1008,4 hPa 0,0 l/m 0 min 0 min 0 W/m 3,2 km/h (1 Bft) 95,65 %
10.05.2021 22:38 16,8 C 15,6 C 13,4 C 74 % 1008,4 hPa 0,0 l/m 0 min 0 min 0 W/m 9,7 km/h (2 Bft) 95,74 %
10.05.2021 22:40 16,7 C 15,6 C 13,4 C 74 % 1008,4 hPa 0,0 l/m 0 min 0 min 0 W/m 3,2 km/h (1 Bft) 97,87 %
10.05.2021 22:42 16,7 C 15,6 C 13,4 C 74 % 1008,4 hPa 0,0 l/m 0 min 0 min 0 W/m 3,2 km/h (1 Bft) 97,87 %
10.05.2021 22:44 16,7 C 15,6 C 13,4 C 74 % 1008,4 hPa 0,0 l/m 0 min 0 min 0 W/m 3,2 km/h (1 Bft) 93,62 %
10.05.2021 22:46 16,6 C 15,6 C 13,4 C 74 % 1008,4 hPa 0,0 l/m 0 min 0 min 0 W/m 6,4 km/h (2 Bft) 97,83 %
10.05.2021 22:48 16,6 C 15,6 C 13,4 C 74 % 1008,4 hPa 0,0 l/m 0 min 0 min 0 W/m 3,2 km/h (1 Bft) 93,62 %
10.05.2021 22:50 16,6 C 15,6 C 13,4 C 74 % 1008,4 hPa 0,0 l/m 0 min 0 min 0 W/m 3,2 km/h (1 Bft) 95,74 %
10.05.2021 22:52 16,6 C 15,6 C 13,4 C 74 % 1008,5 hPa 0,0 l/m 0 min 0 min 0 W/m 6,4 km/h (2 Bft) 93,62 %
10.05.2021 22:54 16,6 C 15,6 C 13,4 C 74 % 1008,4 hPa 0,0 l/m 0 min 0 min 0 W/m 3,2 km/h (1 Bft) 95,74 %
10.05.2021 22:56 16,5 C 15,6 C 13,4 C 74 % 1008,4 hPa 0,0 l/m 0 min 0 min 0 W/m 3,2 km/h (1 Bft) 95,74 %
10.05.2021 22:58 16,5 C 15,6 C 13,4 C 74 % 1008,4 hPa 0,0 l/m 0 min 0 min 0 W/m 9,7 km/h (2 Bft) 95,74 %
10.05.2021 23:00 16,5 C 15,6 C 13,4 C 75 % 1008,5 hPa 0,0 l/m 0 min 0 min 0 W/m 6,4 km/h (2 Bft) 95,65 %
10.05.2021 23:02 16,5 C 15,6 C 12,8 C 75 % 1008,4 hPa 0,0 l/m 0 min 0 min 0 W/m 6,4 km/h (2 Bft) 95,74 %
10.05.2021 23:04 16,5 C 15,6 C 12,8 C 75 % 1008,4 hPa 0,0 l/m 0 min 0 min 0 W/m 9,7 km/h (2 Bft) 97,87 %
10.05.2021 23:06 16,5 C 15,6 C 12,8 C 75 % 1008,4 hPa 0,0 l/m 0 min 0 min 0 W/m 9,7 km/h (2 Bft) 97,87 %
10.05.2021 23:08 16,5 C 15,6 C 12,8 C 75 % 1008,4 hPa 0,0 l/m 0 min 0 min 0 W/m 3,2 km/h (1 Bft) 97,87 %
10.05.2021 23:10 16,4 C 15,6 C 12,8 C 75 % 1008,5 hPa 0,0 l/m 0 min 0 min 0 W/m 12,9 km/h (3 Bft) 97,83 %
10.05.2021 23:12 16,4 C 15,6 C 12,8 C 75 % 1008,5 hPa 0,0 l/m 0 min 0 min 0 W/m 12,9 km/h (3 Bft) 95,74 %
10.05.2021 23:14 16,4 C 15,6 C 12,8 C 75 % 1008,5 hPa 0,0 l/m 0 min 0 min 0 W/m 3,2 km/h (1 Bft) 97,87 %
10.05.2021 23:16 16,4 C 15,6 C 12,8 C 75 % 1008,5 hPa 0,0 l/m 0 min 0 min 0 W/m 3,2 km/h (1 Bft) 97,87 %
10.05.2021 23:18 16,4 C 15,6 C 12,8 C 75 % 1008,6 hPa 0,0 l/m 0 min 0 min 0 W/m 0,0 km/h (0 Bft) 93,62 %
10.05.2021 23:20 16,4 C 15,6 C 12,8 C 75 % 1008,5 hPa 0,0 l/m 0 min 0 min 0 W/m 3,2 km/h (1 Bft) 97,14 %
10.05.2021 23:22 16,4 C 15,6 C 12,8 C 75 % 1008,6 hPa 0,0 l/m 0 min 0 min 0 W/m 6,4 km/h (2 Bft) 95,74 %
10.05.2021 23:24 16,4 C 15,0 C 12,8 C 75 % 1008,5 hPa 0,0 l/m 0 min 0 min 0 W/m 3,2 km/h (1 Bft) 97,87 %
10.05.2021 23:26 16,3 C 15,0 C 12,8 C 76 % 1008,5 hPa 0,0 l/m 0 min 0 min 0 W/m 3,2 km/h (1 Bft) 95,65 %
10.05.2021 23:28 16,3 C 15,0 C 12,8 C 76 % 1008,5 hPa 0,0 l/m 0 min 0 min 0 W/m 3,2 km/h (1 Bft) 97,87 %
10.05.2021 23:30 16,3 C 15,0 C 12,8 C 76 % 1008,6 hPa 0,0 l/m 0 min 0 min 0 W/m 6,4 km/h (2 Bft) 95,74 %
10.05.2021 23:32 16,2 C 15,0 C 12,3 C 76 % 1008,6 hPa 0,0 l/m 0 min 0 min 0 W/m 3,2 km/h (1 Bft) 97,87 %
10.05.2021 23:34 16,2 C 15,0 C 12,3 C 76 % 1008,6 hPa 0,0 l/m 0 min 0 min 0 W/m 3,2 km/h (1 Bft) 100,00 %
10.05.2021 23:36 16,1 C 15,0 C 12,3 C 77 % 1008,6 hPa 0,0 l/m 0 min 0 min 0 W/m 0,0 km/h (0 Bft) 100,00 %
10.05.2021 23:38 16,1 C 15,0 C 12,3 C 77 % 1008,6 hPa 0,0 l/m 0 min 0 min 0 W/m 0,0 km/h (0 Bft) 100,00 %
10.05.2021 23:40 16,1 C 14,4 C 12,3 C 77 % 1008,5 hPa 0,0 l/m 0 min 0 min 0 W/m 0,0 km/h (0 Bft) 100,00 %
10.05.2021 23:42 16,1 C 15,0 C 12,3 C 77 % 1008,5 hPa 0,0 l/m 0 min 0 min 0 W/m 0,0 km/h (0 Bft) 100,00 %
10.05.2021 23:44 16,0 C 14,4 C 12,3 C 77 % 1008,5 hPa 0,0 l/m 0 min 0 min 0 W/m 0,0 km/h (0 Bft) 100,00 %
10.05.2021 23:46 16,0 C 14,4 C 12,3 C 77 % 1008,5 hPa 0,0 l/m 0 min 0 min 0 W/m 3,2 km/h (1 Bft) 100,00 %
10.05.2021 23:48 16,0 C 14,4 C 12,3 C 77 % 1008,5 hPa 0,0 l/m 0 min 0 min 0 W/m 3,2 km/h (1 Bft) 100,00 %
10.05.2021 23:50 16,0 C 14,4 C 12,3 C 77 % 1008,5 hPa 0,0 l/m 0 min 0 min 0 W/m 3,2 km/h (1 Bft) 100,00 %
10.05.2021 23:52 16,0 C 14,4 C 12,3 C 77 % 1008,5 hPa 0,0 l/m 0 min 0 min 0 W/m 3,2 km/h (1 Bft) 100,00 %
10.05.2021 23:54 15,9 C 14,4 C 12,3 C 78 % 1008,5 hPa 0,0 l/m 0 min 0 min 0 W/m 0,0 km/h (0 Bft) 100,00 %
10.05.2021 23:56 15,9 C 14,4 C 12,3 C 78 % 1008,5 hPa 0,0 l/m 0 min 0 min 0 W/m 0,0 km/h (0 Bft) 100,00 %
10.05.2021 23:58 15,9 C 14,4 C 12,3 C 78 % 1008,5 hPa 0,0 l/m 0 min 0 min 0 W/m 0,0 km/h (0 Bft) 100,00 %
_ Min-Zeit 14:18 14:00 14:02 04:00 04:34 - - - - 23:18 07:16
Minimum _ 15,0 C 14,4 C 11,7 C 54 % 999,9 hPa - - - - 0,0 km/h (0 Bft) 70,21 %
_ Max-Zeit 04:04 08:58 09:06 14:10 23:18 00:00 08:42 01:58 13:10 06:42 00:00
Maximum _ 21,9 C 23,9 C 19,5 C 86 % 1008,6 hPa 0,0 l/m 2 min 2 min 713 W/m 54,7 km/h
S-SO (7 Bft)
100,00 %
Durchschnitt _ 19,2 C 18,7 C 15,8 C 67 % 1004,8 hPa #0,0 l/m #2:50 h #26 min. 188 W/m 18,4 km/h (3 Bft) 97,57 %
© 2021 W. Hausmann